M I D A S
Marine Information and Data Acquisition System
Tripno 1868 of the Zeeleeuw from 2010-04-26 10:11:46 to 2010-04-26 14:43:17
Back to CruiseResearch ActivitiesStationsMapUnderway DataData graphs

EquipmentUnitsComment
TimeDGPSUTC
LatitudeDGPSDM.mWGS84
LongitudeDGPSDM.mWGS84
TemperatureSBE03/SBE38deg celciusITS90
ConductivitySBE21S/mITS90
SalinitySBE21 Practical Salinity Units
ChlorophylAChelsea fluorimeterg/lCalibrated in Aceton
Missing or incorrect values are displayed as -999
Sea surface data collected by the RV Zeeleeuw from 2010-04-26 07:09:07 to 2010-04-26 15:02:00
                                                                                    Next 1000 lines
Time Latitude Longitude Temperature Conductivity Salinity ChlorophylA
2010-04-26 07:09:16 51°13.661 2°55.952 18.0121 0.089093 0.428849 -0.965744
2010-04-26 07:09:21 51°13.662 2°55.947 17.9881 0.089093 0.42886 -1.035392
2010-04-26 07:09:27 51°13.664 2°55.94 18.0361 0.089093 0.42886 -1.035392
2010-04-26 07:09:32 51°13.666 2°55.933 17.9667 0.089093 0.428872 -1.000568
2010-04-26 07:09:38 51°13.668 2°55.924 18.0265 0.089093 0.428878 -1.000568
2010-04-26 07:09:44 51°13.671 2°55.914 18.0313 0.089093 0.428889 -1.000568
2010-04-26 07:09:49 51°13.673 2°55.905 18.0453 0.089093 0.428901 -1.000568
2010-04-26 07:09:55 51°13.675 2°55.894 18.0471 0.089093 0.428901 -1.000568
2010-04-26 07:10:00 51°13.677 2°55.884 18.0459 0.089093 0.428913 -1.000568
2010-04-26 07:10:05 51°13.679 2°55.875 18.0464 0.089093 0.428924 -1.000568
2010-04-26 07:10:10 51°13.681 2°55.866 18.0449 0.089093 0.428936 -1.000568
2010-04-26 07:10:15 51°13.683 2°55.857 18.0449 0.089093 0.428947 -1.035392
2010-04-26 07:10:20 51°13.684 2°55.848 18.0531 0.089093 0.428959 -1.000568
2010-04-26 07:10:25 51°13.685 2°55.839 18.0546 0.089093 0.428959 -1.000568
2010-04-26 07:10:30 51°13.687 2°55.831 18.0654 0.089093 0.428965 -1.000568
2010-04-26 07:10:35 51°13.688 2°55.822 18.0632 0.089093 0.428976 -1.035392
2010-04-26 07:10:40 51°13.689 2°55.814 18.0672 0.089093 0.428988 -1.000568
2010-04-26 07:10:45 51°13.69 2°55.806 18.0577 0.089093 0.428994 -1.035392
2010-04-26 07:10:50 51°13.691 2°55.798 18.0594 0.089093 0.428999 -1.000568
2010-04-26 07:10:55 51°13.691 2°55.791 18.0619 0.089093 0.428999 -1.000568
2010-04-26 07:11:00 51°13.692 2°55.783 18.0645 0.089093 0.429017 -1.000568
2010-04-26 07:11:05 51°13.692 2°55.776 18.0707 0.089093 0.429022 -1.000568
2010-04-26 07:11:10 51°13.693 2°55.77 18.061 0.089093 0.429034 -1.000568
2010-04-26 07:11:15 51°13.693 2°55.766 18.0657 0.089093 0.42904 -1.000568
2010-04-26 07:11:20 51°13.693 2°55.764 18.0678 0.089093 0.429051 -1.035392
2010-04-26 07:11:25 51°13.693 2°55.762 18.0958 0.089093 0.429051 -1.035392
2010-04-26 07:11:29 51°13.694 2°55.762 18.0949 0.089093 0.429069 -0.965744
2010-04-26 07:11:35 51°13.694 2°55.763 18.0987 0.089093 0.429075 -1.000568
2010-04-26 07:11:40 51°13.695 2°55.764 18.0952 0.089093 0.429086 -1.035392
2010-04-26 07:11:45 51°13.695 2°55.765 18.0916 0.089093 0.429104 -1.000568
2010-04-26 07:11:50 51°13.696 2°55.766 18.0836 0.089093 0.429115 -0.965744
2010-04-26 07:11:55 51°13.697 2°55.767 18.0685 0.089093 0.429115 -0.965744
2010-04-26 07:12:00 51°13.697 2°55.768 17.9872 0.089093 0.429121 -1.035392
2010-04-26 07:12:05 51°13.698 2°55.768 17.9846 0.089093 0.429127 -1.035392
2010-04-26 07:12:10 51°13.697 2°55.768 17.9704 0.089093 0.429132 -1.000568
2010-04-26 07:12:15 51°13.696 2°55.766 17.9415 0.089093 0.429132 -1.000568
2010-04-26 07:12:20 51°13.695 2°55.764 18.0361 0.089093 0.429144 -1.000568
2010-04-26 07:12:25 51°13.693 2°55.762 18.0541 0.089093 0.429144 -1.000568
2010-04-26 07:12:30 51°13.691 2°55.759 18.0414 0.089093 0.42915 -1.035392
2010-04-26 07:12:35 51°13.689 2°55.757 18.0373 0.088989 0.428632 -1.035392
2010-04-26 07:12:40 51°13.688 2°55.756 18.0493 0.088989 0.428637 -1.000568
2010-04-26 07:12:45 51°13.688 2°55.756 18.0919 0.088989 0.428637 -1.000568
2010-04-26 07:12:50 51°13.689 2°55.756 18.0273 0.089093 0.429173 -1.035392
2010-04-26 07:12:55 51°13.69 2°55.758 18.0685 0.089093 0.429173 -1.035392
2010-04-26 07:13:00 51°13.692 2°55.758 18.0439 0.088989 0.428661 -1.000568
2010-04-26 07:13:05 51°13.694 2°55.759 18.0784 0.088989 0.428701 -1.000568
2010-04-26 07:13:10 51°13.697 2°55.759 18.0846 0.088989 0.428713 -1.035392
2010-04-26 07:13:15 51°13.7 2°55.759 18.0905 0.088989 0.428724 -1.000568
2010-04-26 07:13:20 51°13.704 2°55.758 18.0796 0.088989 0.428718 -1.000568
2010-04-26 07:13:25 51°13.708 2°55.757 18.0779 0.088989 0.428718 -1.000568
2010-04-26 07:13:30 51°13.712 2°55.755 18.0779 0.088989 0.42873 -1.000568
2010-04-26 07:13:35 51°13.716 2°55.752 18.0654 0.088989 0.42873 -1.000568
2010-04-26 07:13:40 51°13.719 2°55.748 17.997 0.088989 0.428742 -1.035392
2010-04-26 07:13:45 51°13.723 2°55.745 17.9738 0.088989 0.428753 -1.035392
2010-04-26 07:13:50 51°13.727 2°55.741 17.954 0.088989 0.428753 -1.000568
2010-04-26 07:13:55 51°13.731 2°55.737 17.9534 0.088989 0.428753 -1.000568
2010-04-26 07:14:00 51°13.735 2°55.733 17.9574 0.088989 0.428753 -1.035392
2010-04-26 07:14:05 51°13.739 2°55.728 17.9633 0.088989 0.428753 -1.000568
2010-04-26 07:14:10 51°13.744 2°55.724 17.9764 0.088989 0.428765 -1.000568
2010-04-26 07:14:15 51°13.748 2°55.719 17.9856 0.088989 0.428776 -1.000568
2010-04-26 07:14:20 51°13.753 2°55.715 17.9888 0.088989 0.428782 -1.000568
2010-04-26 07:14:25 51°13.758 2°55.709 17.99 0.088989 0.428782 -1.000568
2010-04-26 07:14:29 51°13.763 2°55.705 17.992 0.088989 0.428794 -0.965744
2010-04-26 07:14:34 51°13.769 2°55.699 17.9911 0.088989 0.428805 -1.035392
2010-04-26 07:14:39 51°13.775 2°55.693 17.9838 0.088989 0.428823 -1.000568
2010-04-26 07:14:45 51°13.783 2°55.685 17.9826 0.088989 0.428834 -1.000568
2010-04-26 07:14:49 51°13.789 2°55.68 17.9856 0.088989 0.428852 -1.000568
2010-04-26 07:14:55 51°13.797 2°55.671 17.9923 0.088989 0.428852 -1.000568
2010-04-26 07:15:00 51°13.804 2°55.664 17.9301 0.088989 0.428869 -1.035392
2010-04-26 07:15:05 51°13.812 2°55.657 17.9248 0.088989 0.428886 -1.035392
2010-04-26 07:15:10 51°13.819 2°55.65 17.9279 0.088989 0.428898 -1.000568
2010-04-26 07:15:15 51°13.826 2°55.643 17.9439 0.088989 0.42891 -0.965744
2010-04-26 07:15:20 51°13.833 2°55.636 17.9226 0.088989 0.42891 -0.965744
2010-04-26 07:15:25 51°13.84 2°55.629 17.8827 0.088989 0.42891 -0.965744
2010-04-26 07:15:30 51°13.847 2°55.622 17.9005 0.088989 0.428927 -1.000568
2010-04-26 07:15:35 51°13.854 2°55.616 17.9138 0.088989 0.428933 -1.000568
2010-04-26 07:15:40 51°13.861 2°55.609 17.9418 0.088989 0.428939 -1.000568
2010-04-26 07:15:45 51°13.867 2°55.603 17.9187 0.088989 0.428944 -1.000568
2010-04-26 07:15:50 51°13.874 2°55.596 17.9423 0.088989 0.42895 -1.035392
2010-04-26 07:15:55 51°13.88 2°55.59 17.9513 0.088989 0.42895 -1.035392
2010-04-26 07:16:00 51°13.886 2°55.584 17.9643 0.088989 0.428956 -1.035392
2010-04-26 07:16:05 51°13.891 2°55.578 17.9656 0.088989 0.428973 -1.000568
2010-04-26 07:16:09 51°13.896 2°55.573 17.9601 0.088989 0.428985 -1.000568
2010-04-26 07:16:15 51°13.903 2°55.566 17.9553 0.088989 0.428991 -1.000568
2010-04-26 07:16:20 51°13.908 2°55.561 17.957 0.088989 0.429002 -1.000568
2010-04-26 07:16:25 51°13.914 2°55.555 17.953 0.088989 0.429002 -1.000568
2010-04-26 07:16:30 51°13.919 2°55.55 17.9539 0.088989 0.429014 -1.000568
2010-04-26 07:16:35 51°13.924 2°55.545 17.9636 0.088989 0.429026 -1.000568
2010-04-26 07:16:40 51°13.929 2°55.54 17.9793 0.088884 0.428507 -1.000568
2010-04-26 07:16:45 51°13.934 2°55.535 18.0107 0.088884 0.428518 -1.000568
2010-04-26 07:16:49 51°13.938 2°55.531 18.0056 0.088884 0.428536 -0.965744
2010-04-26 07:16:54 51°13.943 2°55.526 18.0327 0.088884 0.428536 -0.965744
2010-04-26 07:16:59 51°13.947 2°55.522 18.0421 0.088884 0.428542 -1.000568
2010-04-26 07:17:04 51°13.951 2°55.517 18.0495 0.088884 0.428559 -1.035392
2010-04-26 07:17:09 51°13.956 2°55.512 18.0545 0.088884 0.428565 -1.035392
2010-04-26 07:17:13 51°13.959 2°55.508 18.0453 0.088884 0.428576 -1.035392
2010-04-26 07:17:18 51°13.963 2°55.503 18.046 0.088884 0.428594 -1.035392
2010-04-26 07:17:23 51°13.967 2°55.498 18.0459 0.088884 0.428594 -1.035392
2010-04-26 07:17:28 51°13.971 2°55.493 18.0395 0.088884 0.428605 -1.000568
2010-04-26 07:17:33 51°13.975 2°55.488 18.0255 0.088884 0.428617 -1.000568
2010-04-26 07:17:37 51°13.978 2°55.484 18.0183 0.088884 0.428629 -1.000568
2010-04-26 07:17:42 51°13.981 2°55.479 17.9628 0.088884 0.428634 -1.000568
2010-04-26 07:17:47 51°13.985 2°55.475 17.9558 0.088884 0.428646 -1.035392
2010-04-26 07:17:52 51°13.988 2°55.471 17.9955 0.088884 0.428646 -1.035392
2010-04-26 07:17:57 51°13.99 2°55.467 18.0039 0.088884 0.428663 -1.035392
2010-04-26 07:18:02 51°13.993 2°55.464 17.9224 0.088884 0.428669 -1.035392
2010-04-26 07:18:07 51°13.995 2°55.461 17.9354 0.088884 0.428675 -1.035392
2010-04-26 07:18:12 51°13.996 2°55.459 17.9369 0.088884 0.428681 -1.035392
2010-04-26 07:18:17 51°13.997 2°55.458 18.029 0.088884 0.428698 -1.000568
2010-04-26 07:18:21 51°13.998 2°55.458 18.0111 0.088884 0.428698 -1.000568
2010-04-26 07:18:27 51°13.998 2°55.457 18.017 0.088884 0.428715 -1.035392
2010-04-26 07:18:31 51°13.999 2°55.456 18.0268 0.088884 0.428727 -1.000568
2010-04-26 07:18:37 51°14 2°55.455 18.0209 0.088884 0.42875 -1.000568
2010-04-26 07:18:41 51°14 2°55.455 18.0237 0.088884 0.42875 -1.035392
2010-04-26 07:18:47 51°14.001 2°55.454 18.0198 0.088884 0.428762 -1.035392
2010-04-26 07:18:51 51°14.002 2°55.454 18.0281 0.088884 0.428762 -1.035392
2010-04-26 07:18:57 51°14.003 2°55.453 18.0218 0.088884 0.428779 -0.965744
2010-04-26 07:19:01 51°14.003 2°55.453 18.0058 0.088884 0.428785 -1.000568
2010-04-26 07:19:06 51°14.004 2°55.452 18.0509 0.088884 0.428797 -1.000568
2010-04-26 07:19:11 51°14.004 2°55.453 18.01 0.088884 0.428814 -1.000568
2010-04-26 07:19:17 51°14.003 2°55.452 17.9858 0.088884 0.428831 -1.000568
2010-04-26 07:19:21 51°14.003 2°55.452 18.0392 0.088884 0.428831 -1.000568
2010-04-26 07:19:26 51°14.003 2°55.452 18.019 0.088884 0.428831 -1.000568
2010-04-26 07:19:32 51°14.003 2°55.452 18.0219 0.088884 0.428843 -1.000568
2010-04-26 07:19:37 51°14.003 2°55.452 18.0024 0.088884 0.428849 -1.035392
2010-04-26 07:19:41 51°14.003 2°55.452 18.0243 0.088884 0.42886 -1.000568
2010-04-26 07:19:46 51°14.003 2°55.452 18.0142 0.088884 0.428866 -1.000568
2010-04-26 07:19:51 51°14.003 2°55.452 18.0238 0.088884 0.428866 -1.000568
2010-04-26 07:19:57 51°14.003 2°55.452 18.0138 0.088884 0.428884 -1.035392
2010-04-26 07:20:01 51°14.003 2°55.451 18.0235 0.088884 0.428889 -1.000568
2010-04-26 07:20:06 51°14.003 2°55.451 18.0083 0.088884 0.428907 -1.035392
2010-04-26 07:20:11 51°14.003 2°55.451 18.0433 0.088884 0.428913 -1.000568
2010-04-26 07:20:17 51°14.003 2°55.451 18.0296 0.088884 0.428924 -1.000568
2010-04-26 07:20:21 51°14.004 2°55.451 18.0175 0.088884 0.428924 -1.000568
2010-04-26 07:20:26 51°14.004 2°55.451 18.0091 0.088884 0.428936 -1.035392
2010-04-26 07:20:31 51°14.004 2°55.451 18.0002 0.088884 0.428948 -1.000568
2010-04-26 07:20:37 51°14.004 2°55.451 18.0139 0.088884 0.428953 -1.000568
2010-04-26 07:20:41 51°14.004 2°55.451 18.0156 0.088884 0.428959 -1.035392
2010-04-26 07:20:46 51°14.004 2°55.451 18.008 0.08878 0.428452 -1.035392
2010-04-26 07:20:51 51°14.004 2°55.452 17.985 0.08878 0.428452 -1.035392
2010-04-26 07:20:57 51°14.005 2°55.452 17.9675 0.08878 0.428457 -1.000568
2010-04-26 07:21:01 51°14.005 2°55.452 17.9828 0.088884 0.428994 -0.965744
2010-04-26 07:21:07 51°14.005 2°55.452 17.9822 0.08878 0.428486 -1.000568
2010-04-26 07:21:11 51°14.005 2°55.452 17.9661 0.08878 0.428498 -1.035392
2010-04-26 07:21:17 51°14.005 2°55.452 17.9323 0.08878 0.42851 -1.000568
2010-04-26 07:21:21 51°14.005 2°55.451 17.9464 0.08878 0.42851 -1.000568
2010-04-26 07:21:26 51°14.005 2°55.451 17.9694 0.08878 0.428515 -1.000568
2010-04-26 07:21:32 51°14.005 2°55.451 17.9342 0.08878 0.428533 -1.000568
2010-04-26 07:21:37 51°14.005 2°55.451 17.9962 0.08878 0.428544 -1.000568
2010-04-26 07:21:41 51°14.005 2°55.451 17.9988 0.08878 0.428544 -0.965744
2010-04-26 07:21:46 51°14.005 2°55.451 18.0005 0.08878 0.428556 -1.035392
2010-04-26 07:21:51 51°14.005 2°55.451 18.0026 0.08878 0.428556 -1.035392
2010-04-26 07:21:57 51°14.005 2°55.451 18.0056 0.08878 0.428562 -1.035392
2010-04-26 07:22:01 51°14.005 2°55.451 18.0125 0.08878 0.428573 -1.000568
2010-04-26 07:22:06 51°14.005 2°55.451 18.0084 0.08878 0.428585 -1.000568
2010-04-26 07:22:11 51°14.005 2°55.451 17.9983 0.08878 0.428591 -1.035392
2010-04-26 07:22:16 51°14.005 2°55.451 18.0109 0.08878 0.428602 -1.035392
2010-04-26 07:22:21 51°14.005 2°55.451 18.0031 0.08878 0.428602 -1.035392
2010-04-26 07:22:26 51°14.004 2°55.451 17.9993 0.08878 0.428614 -1.035392
2010-04-26 07:22:31 51°14.004 2°55.451 18.0065 0.08878 0.428626 -1.000568
2010-04-26 07:22:37 51°14.004 2°55.451 18.005 0.08878 0.428637 -1.000568
2010-04-26 07:22:41 51°14.005 2°55.451 17.9907 0.08878 0.428637 -1.000568
2010-04-26 07:22:46 51°14.004 2°55.451 18.0103 0.08878 0.428643 -1.035392
2010-04-26 07:22:51 51°14.004 2°55.451 17.9965 0.08878 0.428643 -1.035392
2010-04-26 07:22:57 51°14.005 2°55.451 17.994 0.08878 0.42866 -1.035392
2010-04-26 07:23:01 51°14.005 2°55.451 17.9977 0.08878 0.428666 -1.000568
2010-04-26 07:23:06 51°14.005 2°55.451 17.9968 0.08878 0.428678 -1.035392
2010-04-26 07:23:11 51°14.005 2°55.452 17.9989 0.08878 0.428689 -1.035392
2010-04-26 07:23:17 51°14.005 2°55.452 18.0143 0.08878 0.428695 -1.000568
2010-04-26 07:23:21 51°14.005 2°55.453 17.9812 0.08878 0.428695 -1.000568
2010-04-26 07:23:26 51°14.005 2°55.453 17.9989 0.08878 0.428707 -1.000568
2010-04-26 07:23:32 51°14.005 2°55.453 17.9982 0.08878 0.428713 -1.000568
2010-04-26 07:23:37 51°14.005 2°55.452 17.9983 0.08878 0.428718 -1.000568
2010-04-26 07:23:41 51°14.005 2°55.452 18.0023 0.08878 0.428736 -1.000568
2010-04-26 07:23:46 51°14.004 2°55.451 17.9852 0.08878 0.428742 -1.000568
2010-04-26 07:23:52 51°14.004 2°55.451 18.0103 0.08878 0.428742 -1.000568
2010-04-26 07:23:57 51°14.004 2°55.451 18.002 0.08878 0.428742 -1.000568
2010-04-26 07:24:01 51°14.004 2°55.451 18.0172 0.08878 0.428753 -1.000568
2010-04-26 07:24:06 51°14.004 2°55.45 18.0072 0.08878 0.428765 -1.000568
2010-04-26 07:24:11 51°14.004 2°55.451 18.0001 0.08878 0.428782 -1.000568
2010-04-26 07:24:17 51°14.004 2°55.451 18.01 0.08878 0.428782 -1.035392
2010-04-26 07:24:21 51°14.004 2°55.451 18.0022 0.08878 0.428782 -1.035392
2010-04-26 07:24:26 51°14.004 2°55.451 17.9959 0.08878 0.428788 -1.035392
2010-04-26 07:24:31 51°14.004 2°55.45 18.0095 0.08878 0.428806 -1.000568
2010-04-26 07:24:37 51°14.004 2°55.45 18.0108 0.08878 0.428811 -1.035392
2010-04-26 07:24:41 51°14.004 2°55.449 18.0036 0.08878 0.428817 -1.000568
2010-04-26 07:24:46 51°14.004 2°55.449 18.0105 0.08878 0.428829 -1.000568
2010-04-26 07:24:51 51°14.003 2°55.449 18.0088 0.08878 0.428829 -1.000568
2010-04-26 07:24:57 51°14.003 2°55.449 18.0089 0.08878 0.428835 -1.000568
2010-04-26 07:25:01 51°14.003 2°55.449 18.0043 0.08878 0.42884 -1.000568
2010-04-26 07:25:06 51°14.003 2°55.449 17.9995 0.088676 0.428332 -1.000568
2010-04-26 07:25:11 51°14.003 2°55.448 18.0043 0.088676 0.428344 -1.000568
2010-04-26 07:25:17 51°14.003 2°55.448 18.0068 0.08878 0.428864 -1.035392
2010-04-26 07:25:21 51°14.003 2°55.449 18.0097 0.08878 0.428864 -1.035392
2010-04-26 07:25:27 51°14.003 2°55.449 18.0162 0.08878 0.428881 -1.000568
2010-04-26 07:25:31 51°14.003 2°55.449 18.0053 0.088676 0.428373 -1.035392
2010-04-26 07:25:37 51°14.003 2°55.449 18.0109 0.08878 0.428893 -1.000568
2010-04-26 07:25:41 51°14.003 2°55.45 18.0085 0.088676 0.428385 -1.000568
2010-04-26 07:25:46 51°14.003 2°55.45 18.0021 0.088676 0.428385 -1.000568
2010-04-26 07:25:52 51°14.003 2°55.45 18.002 0.088676 0.428385 -1.000568
2010-04-26 07:25:57 51°14.003 2°55.45 18.0082 0.088676 0.428402 -1.000568
2010-04-26 07:26:01 51°14.003 2°55.45 18.0187 0.088676 0.428402 -1.000568
2010-04-26 07:26:06 51°14.003 2°55.45 18.0185 0.088676 0.428414 -1.035392
2010-04-26 07:26:11 51°14.003 2°55.45 18.0138 0.088676 0.42842 -1.035392
2010-04-26 07:26:17 51°14.003 2°55.45 18.0112 0.088676 0.428431 -1.035392
2010-04-26 07:26:21 51°14.004 2°55.45 18.0154 0.088676 0.428431 -1.035392
2010-04-26 07:26:26 51°14.004 2°55.45 18.0116 0.088676 0.428443 -1.000568
2010-04-26 07:26:31 51°14.003 2°55.45 17.998 0.088676 0.428449 -0.965744
2010-04-26 07:26:37 51°14.003 2°55.45 18.0149 0.088676 0.428454 -1.000568
2010-04-26 07:26:41 51°14.003 2°55.45 18.0178 0.088676 0.428466 -1.035392
2010-04-26 07:26:46 51°14.003 2°55.45 18.0161 0.088676 0.428483 -1.000568
2010-04-26 07:26:51 51°14.003 2°55.45 18.0031 0.088676 0.428483 -1.000568
2010-04-26 07:26:57 51°14.003 2°55.45 18.0082 0.088676 0.428489 -1.000568
2010-04-26 07:27:01 51°14.003 2°55.45 18.0105 0.088676 0.428495 -1.000568
2010-04-26 07:27:06 51°14.004 2°55.45 18.0122 0.088676 0.428507 -1.000568
2010-04-26 07:27:11 51°14.004 2°55.45 18.01 0.088676 0.428507 -1.035392
2010-04-26 07:27:17 51°14.004 2°55.45 18.0063 0.088676 0.428518 -1.000568
2010-04-26 07:27:21 51°14.004 2°55.451 18.0133 0.088676 0.428518 -1.000568
2010-04-26 07:27:26 51°14.004 2°55.451 18.0225 0.088676 0.428524 -1.000568
2010-04-26 07:27:31 51°14.004 2°55.452 18.018 0.088676 0.428542 -1.000568
2010-04-26 07:27:37 51°14.004 2°55.452 18.0157 0.088676 0.428547 -1.035392
2010-04-26 07:27:41 51°14.004 2°55.452 17.9721 0.088676 0.428553 -1.000568
2010-04-26 07:27:47 51°14.004 2°55.452 17.9844 0.088676 0.428565 -1.035392
2010-04-26 07:27:51 51°14.004 2°55.452 18.0034 0.088676 0.428565 -1.035392
2010-04-26 07:27:57 51°14.004 2°55.451 17.9906 0.088676 0.428571 -1.000568
2010-04-26 07:28:01 51°14.004 2°55.451 18.0045 0.088676 0.428582 -1.000568
2010-04-26 07:28:06 51°14.004 2°55.451 18.0126 0.088676 0.428588 -0.965744
2010-04-26 07:28:11 51°14.004 2°55.45 18.0029 0.088676 0.4286 -1.035392
2010-04-26 07:28:17 51°14.004 2°55.451 18.0049 0.088676 0.428605 -1.000568
2010-04-26 07:28:21 51°14.004 2°55.451 18.004 0.088676 0.428605 -1.000568
2010-04-26 07:28:26 51°14.004 2°55.45 18.0126 0.088676 0.428611 -1.035392
2010-04-26 07:28:32 51°14.004 2°55.45 18.0067 0.088676 0.428623 -1.035392
2010-04-26 07:28:37 51°14.004 2°55.45 18.0194 0.088676 0.428629 -1.035392
2010-04-26 07:28:41 51°14.004 2°55.451 18.0165 0.088676 0.428635 -1.035392
2010-04-26 07:28:46 51°14.004 2°55.451 18.019 0.088676 0.428652 -1.000568
2010-04-26 07:28:51 51°14.004 2°55.451 18.017 0.088676 0.428652 -1.000568
2010-04-26 07:28:57 51°14.004 2°55.451 18.0127 0.088676 0.428658 -1.000568
2010-04-26 07:29:01 51°14.004 2°55.451 18.0115 0.088676 0.428664 -1.000568
2010-04-26 07:29:06 51°14.004 2°55.451 18.0201 0.088676 0.428675 -1.000568
2010-04-26 07:29:11 51°14.004 2°55.451 18.0125 0.088676 0.428681 -1.035392
2010-04-26 07:29:17 51°14.004 2°55.451 18.0184 0.088676 0.428687 -1.035392
2010-04-26 07:29:21 51°14.004 2°55.451 18.0206 0.088676 0.428687 -1.035392
2010-04-26 07:29:26 51°14.004 2°55.451 18.0271 0.088676 0.428704 -1.000568
2010-04-26 07:29:31 51°14.004 2°55.451 18.0223 0.088676 0.42871 -1.000568
2010-04-26 07:29:37 51°14.004 2°55.451 18.0218 0.088676 0.428716 -1.000568
2010-04-26 07:29:41 51°14.004 2°55.451 18.0244 0.088676 0.428722 -1.035392
2010-04-26 07:29:47 51°14.004 2°55.451 18.0174 0.088676 0.428733 -1.000568
2010-04-26 07:29:51 51°14.004 2°55.451 18.033 0.088676 0.428733 -1.000568
2010-04-26 07:29:57 51°14.004 2°55.451 18.0315 0.088676 0.428739 -1.000568
2010-04-26 07:30:01 51°14.004 2°55.451 17.9997 0.088676 0.428745 -1.035392
2010-04-26 07:30:06 51°14.004 2°55.451 18.0251 0.088676 0.428757 -1.035392
2010-04-26 07:30:11 51°14.004 2°55.451 18.0275 0.088676 0.428768 -1.000568
2010-04-26 07:30:17 51°14.004 2°55.451 18.0159 0.088572 0.428254 -0.965744
2010-04-26 07:30:21 51°14.004 2°55.451 18.0046 0.088572 0.428254 -0.965744
2010-04-26 07:30:25 51°14.004 2°55.451 18.0061 0.088676 0.428786 -1.000568
2010-04-26 07:30:32 51°14.004 2°55.451 18.0061 0.088676 0.428792 -1.035392
2010-04-26 07:30:37 51°14.004 2°55.451 18.023 0.088676 0.428797 -1.035392
2010-04-26 07:30:41 51°14.005 2°55.451 18.0137 0.088676 0.428803 -1.000568
2010-04-26 07:30:46 51°14.005 2°55.451 18.014 0.088572 0.428295 -1.035392
2010-04-26 07:30:52 51°14.005 2°55.451 18.0245 0.088572 0.428295 -1.035392
2010-04-26 07:30:57 51°14.005 2°55.451 18.0197 0.088676 0.428821 -1.000568
2010-04-26 07:31:01 51°14.005 2°55.451 18.0116 0.088676 0.428832 -1.000568
2010-04-26 07:31:06 51°14.004 2°55.451 18.0056 0.088572 0.428318 -1.035392
2010-04-26 07:31:11 51°14.004 2°55.451 18.0139 0.088572 0.42833 -1.000568
2010-04-26 07:31:17 51°14.004 2°55.451 18.0191 0.088572 0.428335 -1.000568
2010-04-26 07:31:21 51°14.004 2°55.451 18.0268 0.088572 0.428335 -1.000568
2010-04-26 07:31:26 51°14.004 2°55.451 18.0233 0.088572 0.428347 -1.000568
2010-04-26 07:31:31 51°14.004 2°55.451 18.0245 0.088572 0.428353 -1.000568
2010-04-26 07:31:37 51°14.004 2°55.451 18.021 0.088572 0.428353 -1.035392
2010-04-26 07:31:41 51°14.004 2°55.451 18.0279 0.088572 0.42837 -1.035392
2010-04-26 07:31:47 51°14.004 2°55.451 18.0327 0.088572 0.428376 -1.000568
2010-04-26 07:31:51 51°14.004 2°55.451 18.0316 0.088572 0.428376 -1.000568
2010-04-26 07:31:57 51°14.004 2°55.451 18.0322 0.088572 0.428388 -1.035392
2010-04-26 07:32:01 51°14.004 2°55.451 18.0241 0.088572 0.428399 -1.035392
2010-04-26 07:32:06 51°14.004 2°55.451 18.0265 0.088572 0.428393 -1.000568
2010-04-26 07:32:11 51°14.004 2°55.451 18.0276 0.088572 0.428405 -1.000568
2010-04-26 07:32:17 51°14.004 2°55.451 18.0279 0.088572 0.428417 -1.000568
2010-04-26 07:32:21 51°14.004 2°55.451 18.0271 0.088572 0.428417 -1.000568
2010-04-26 07:32:27 51°14.004 2°55.451 18.0171 0.088572 0.428423 -1.000568
2010-04-26 07:32:31 51°14.004 2°55.451 18.0137 0.088572 0.428428 -1.000568
2010-04-26 07:32:37 51°14.004 2°55.451 18.0206 0.088572 0.428434 -1.000568
2010-04-26 07:32:41 51°14.004 2°55.451 18.0261 0.088572 0.428446 -1.035392
2010-04-26 07:32:46 51°14.004 2°55.451 18.0324 0.088572 0.428457 -1.035392
2010-04-26 07:32:52 51°14.004 2°55.451 18.0344 0.088572 0.428457 -1.035392
2010-04-26 07:32:57 51°14.004 2°55.451 18.0285 0.088572 0.428469 -1.000568
2010-04-26 07:33:01 51°14.004 2°55.451 18.0348 0.088572 0.428469 -1.000568
2010-04-26 07:33:06 51°14.004 2°55.451 18.0464 0.088572 0.428475 -1.035392
2010-04-26 07:33:11 51°14.004 2°55.451 18.0363 0.088572 0.428487 -1.000568
2010-04-26 07:33:17 51°14.004 2°55.451 18.0383 0.088572 0.428498 -1.000568
2010-04-26 07:33:21 51°14.004 2°55.451 18.041 0.088572 0.428498 -1.000568
2010-04-26 07:33:27 51°14.005 2°55.451 18.0391 0.088572 0.428504 -1.035392
2010-04-26 07:33:31 51°14.005 2°55.451 18.0462 0.088572 0.42851 -1.035392
2010-04-26 07:33:36 51°14.005 2°55.451 18.0428 0.088572 0.428516 -1.000568
2010-04-26 07:33:41 51°14.005 2°55.452 18.0421 0.088572 0.428527 -1.000568
2010-04-26 07:33:46 51°14.005 2°55.452 18.0428 0.088572 0.428539 -1.035392
2010-04-26 07:33:51 51°14.005 2°55.452 18.0449 0.088572 0.428539 -1.035392
2010-04-26 07:33:57 51°14.005 2°55.452 18.0454 0.088572 0.428539 -1.000568
2010-04-26 07:34:01 51°14.005 2°55.452 18.0411 0.088572 0.428551 -1.035392
2010-04-26 07:34:06 51°14.005 2°55.452 18.0314 0.088572 0.428562 -1.000568
2010-04-26 07:34:12 51°14.005 2°55.452 18.0333 0.088572 0.428562 -1.035392
2010-04-26 07:34:17 51°14.005 2°55.452 18.0343 0.088572 0.428574 -1.000568
2010-04-26 07:34:21 51°14.005 2°55.452 18.0468 0.088572 0.428574 -1.000568
2010-04-26 07:34:26 51°14.005 2°55.452 18.0413 0.088572 0.42858 -1.000568
2010-04-26 07:34:31 51°14.005 2°55.452 18.0372 0.088572 0.428591 -1.000568
2010-04-26 07:34:37 51°14.005 2°55.452 18.0297 0.088572 0.428603 -1.000568
2010-04-26 07:34:41 51°14.005 2°55.452 18.0547 0.088572 0.428615 -1.035392
2010-04-26 07:34:46 51°14.005 2°55.452 18.0431 0.088572 0.428615 -1.000568
2010-04-26 07:34:51 51°14.005 2°55.452 18.0262 0.088572 0.428615 -1.000568
2010-04-26 07:34:57 51°14.005 2°55.452 18.0271 0.088572 0.428626 -1.000568
2010-04-26 07:35:01 51°14.005 2°55.452 18.0327 0.088572 0.428632 -0.965744
2010-04-26 07:35:06 51°14.005 2°55.452 18.0339 0.088572 0.428638 -1.035392
2010-04-26 07:35:12 51°14.005 2°55.452 18.0331 0.088572 0.428644 -1.000568
2010-04-26 07:35:17 51°14.005 2°55.452 18.0405 0.088572 0.428655 -1.000568
2010-04-26 07:35:21 51°14.005 2°55.452 18.0434 0.088572 0.428655 -1.000568
2010-04-26 07:35:26 51°14.005 2°55.452 18.0432 0.088572 0.428667 -1.035392
2010-04-26 07:35:32 51°14.005 2°55.452 18.0424 0.088572 0.428679 -1.000568
2010-04-26 07:35:37 51°14.005 2°55.452 18.0389 0.088572 0.428679 -1.035392
2010-04-26 07:35:41 51°14.005 2°55.452 18.0185 0.088572 0.428685 -1.000568
2010-04-26 07:35:46 51°14.005 2°55.452 18.029 0.088572 0.428696 -1.000568
2010-04-26 07:35:51 51°14.005 2°55.452 18.0413 0.088572 0.428696 -1.000568
2010-04-26 07:35:57 51°14.005 2°55.452 18.0463 0.088572 0.428708 -1.035392
2010-04-26 07:36:01 51°14.005 2°55.452 18.0418 0.088572 0.428708 -1.035392
2010-04-26 07:36:06 51°14.005 2°55.452 18.0457 0.088572 0.428719 -1.035392
2010-04-26 07:36:11 51°14.005 2°55.452 18.0452 0.088572 0.428725 -1.000568
2010-04-26 07:36:17 51°14.005 2°55.452 18.0317 0.088572 0.428731 -1.000568
2010-04-26 07:36:21 51°14.005 2°55.452 18.0286 0.088572 0.428731 -1.000568
2010-04-26 07:36:26 51°14.005 2°55.452 18.0447 0.088468 0.428222 -0.965744
2010-04-26 07:36:31 51°14.005 2°55.452 18.049 0.088468 0.428228 -1.000568
2010-04-26 07:36:37 51°14.005 2°55.452 18.0421 0.088468 0.428234 -1.035392
2010-04-26 07:36:41 51°14.005 2°55.452 18.0463 0.088572 0.428766 -1.000568
2010-04-26 07:36:47 51°14.005 2°55.452 18.0577 0.088468 0.428251 -1.035392
2010-04-26 07:36:51 51°14.005 2°55.452 18.0532 0.088468 0.428251 -1.035392
2010-04-26 07:36:57 51°14.005 2°55.452 18.0562 0.088572 0.428784 -1.035392
2010-04-26 07:37:01 51°14.005 2°55.452 18.0453 0.088468 0.428269 -1.000568
2010-04-26 07:37:06 51°14.005 2°55.452 18.0482 0.088572 0.428801 -1.000568
2010-04-26 07:37:12 51°14.005 2°55.451 18.0582 0.088468 0.428286 -1.035392
2010-04-26 07:37:17 51°14.005 2°55.452 18.055 0.088468 0.428298 -1.000568
2010-04-26 07:37:21 51°14.005 2°55.452 18.0541 0.088468 0.428298 -1.000568
2010-04-26 07:37:26 51°14.005 2°55.452 18.0573 0.088468 0.428304 -1.035392
2010-04-26 07:37:31 51°14.005 2°55.452 18.0557 0.088468 0.428309 -1.035392
2010-04-26 07:37:37 51°14.005 2°55.452 18.0586 0.088468 0.428315 -1.000568
2010-04-26 07:37:41 51°14.005 2°55.452 18.0627 0.088468 0.428321 -1.000568
2010-04-26 07:37:46 51°14.005 2°55.452 18.055 0.088468 0.428338 -1.000568
2010-04-26 07:37:51 51°14.004 2°55.452 18.0517 0.088468 0.428338 -1.000568
2010-04-26 07:37:56 51°14.005 2°55.452 18.0563 0.088468 0.428344 -1.035392
2010-04-26 07:38:01 51°14.005 2°55.452 18.0557 0.088468 0.42835 -1.000568
2010-04-26 07:38:06 51°14.005 2°55.451 18.0706 0.088468 0.428356 -1.000568
2010-04-26 07:38:11 51°14.005 2°55.452 18.0536 0.088468 0.428362 -1.000568
2010-04-26 07:38:17 51°14.004 2°55.451 18.0475 0.088468 0.428373 -1.035392
2010-04-26 07:38:21 51°14.004 2°55.452 18.0686 0.088468 0.428379 -1.000568
2010-04-26 07:38:26 51°14.004 2°55.452 18.0662 0.088468 0.428379 -1.000568
2010-04-26 07:38:31 51°14.004 2°55.452 18.0446 0.088468 0.428379 -1.000568
2010-04-26 07:38:37 51°14.004 2°55.452 18.0611 0.088468 0.428391 -1.035392
2010-04-26 07:38:41 51°14.004 2°55.452 18.0566 0.088468 0.428403 -1.035392
2010-04-26 07:38:47 51°14.004 2°55.451 18.0573 0.088468 0.428414 -1.035392
2010-04-26 07:38:52 51°14.004 2°55.451 18.0669 0.088468 0.428414 -1.035392
2010-04-26 07:38:57 51°14.004 2°55.451 18.0549 0.088468 0.428414 -1.000568
2010-04-26 07:39:01 51°14.004 2°55.451 18.0573 0.088468 0.42842 -0.965744
2010-04-26 07:39:07 51°14.004 2°55.451 18.0583 0.088468 0.428432 -1.035392
2010-04-26 07:39:11 51°14.004 2°55.451 18.0592 0.088468 0.428443 -1.000568
2010-04-26 07:39:17 51°14.004 2°55.451 18.0629 0.088468 0.428449 -1.000568
2010-04-26 07:39:21 51°14.004 2°55.451 18.0601 0.088468 0.428449 -1.000568
2010-04-26 07:39:26 51°14.004 2°55.451 18.0569 0.088468 0.428461 -0.965744
2010-04-26 07:39:31 51°14.004 2°55.451 18.046 0.088468 0.428461 -1.000568
2010-04-26 07:39:37 51°14.004 2°55.451 18.0497 0.088468 0.428472 -1.035392
2010-04-26 07:39:41 51°14.004 2°55.452 18.0594 0.088468 0.428472 -1.035392
2010-04-26 07:39:46 51°14.004 2°55.452 18.0622 0.088468 0.428478 -1.000568
2010-04-26 07:39:51 51°14.004 2°55.452 18.0622 0.088468 0.428478 -1.000568
2010-04-26 07:39:57 51°14.004 2°55.452 18.0606 0.088468 0.428496 -1.035392
2010-04-26 07:40:01 51°14.004 2°55.452 18.0684 0.088468 0.428502 -1.000568
2010-04-26 07:40:06 51°14.004 2°55.452 18.0591 0.088468 0.428513 -1.000568
2010-04-26 07:40:11 51°14.004 2°55.452 18.0673 0.088468 0.428513 -1.000568
2010-04-26 07:40:17 51°14.004 2°55.452 18.0575 0.088468 0.428525 -1.035392
2010-04-26 07:40:21 51°14.004 2°55.452 18.0555 0.088468 0.428525 -1.035392
2010-04-26 07:40:26 51°14.004 2°55.452 18.0577 0.088468 0.428525 -1.035392
2010-04-26 07:40:31 51°14.004 2°55.452 18.0535 0.088468 0.428537 -1.000568
2010-04-26 07:40:37 51°14.005 2°55.452 18.0518 0.088468 0.428542 -0.965744
2010-04-26 07:40:41 51°14.004 2°55.452 18.0352 0.088468 0.428554 -0.965744
2010-04-26 07:40:46 51°14.004 2°55.452 18.0618 0.088468 0.42856 -1.035392
2010-04-26 07:40:51 51°14.004 2°55.452 18.0647 0.088468 0.42856 -1.035392
2010-04-26 07:40:57 51°14.004 2°55.452 18.0549 0.088468 0.428577 -0.965744
2010-04-26 07:41:01 51°14.004 2°55.452 18.0637 0.088468 0.428577 -1.000568
2010-04-26 07:41:07 51°14.004 2°55.452 18.0563 0.088468 0.428589 -1.000568
2010-04-26 07:41:11 51°14.004 2°55.452 18.0614 0.088468 0.428595 -1.035392
2010-04-26 07:41:17 51°14.004 2°55.452 18.0658 0.088468 0.428595 -1.035392
2010-04-26 07:41:21 51°14.004 2°55.452 18.0682 0.088468 0.428595 -1.035392
2010-04-26 07:41:26 51°14.004 2°55.452 18.0707 0.088468 0.428607 -1.000568
2010-04-26 07:41:31 51°14.004 2°55.452 18.0738 0.088468 0.428612 -1.000568
2010-04-26 07:41:37 51°14.004 2°55.452 18.0722 0.088468 0.428624 -1.035392
2010-04-26 07:41:41 51°14.004 2°55.452 18.0787 0.088468 0.428624 -1.035392
2010-04-26 07:41:45 51°14.004 2°55.452 18.0613 0.088468 0.42863 -0.965744
2010-04-26 07:41:51 51°14.004 2°55.452 18.0618 0.088468 0.42863 -0.965744
2010-04-26 07:41:57 51°14.004 2°55.452 18.0809 0.088468 0.428642 -1.000568
2010-04-26 07:42:01 51°14.004 2°55.452 18.0584 0.088468 0.428647 -1.035392
2010-04-26 07:42:06 51°14.004 2°55.452 18.0628 0.088364 0.428138 -1.035392
2010-04-26 07:42:11 51°14.004 2°55.452 18.0641 0.088364 0.428144 -1.000568
2010-04-26 07:42:16 51°14.004 2°55.452 18.0779 0.088468 0.428671 -0.965744
2010-04-26 07:42:21 51°14.004 2°55.452 18.0701 0.088468 0.428671 -0.965744
2010-04-26 07:42:26 51°14.004 2°55.452 18.0749 0.088364 0.428155 -1.000568
2010-04-26 07:42:31 51°14.004 2°55.452 18.056 0.088364 0.428161 -1.000568
2010-04-26 07:42:37 51°14.004 2°55.452 18.0602 0.088364 0.428167 -1.035392
2010-04-26 07:42:41 51°14.004 2°55.452 18.0722 0.088468 0.428694 -1.000568
2010-04-26 07:42:46 51°14.004 2°55.452 18.0829 0.088364 0.428184 -1.000568
2010-04-26 07:42:51 51°14.004 2°55.453 18.0825 0.088364 0.428184 -1.000568
2010-04-26 07:42:57 51°14.004 2°55.453 18.0816 0.088364 0.42819 -1.035392
2010-04-26 07:43:01 51°14.004 2°55.453 18.0778 0.088364 0.428196 -1.000568
2010-04-26 07:43:07 51°14.004 2°55.453 18.0783 0.088364 0.428202 -1.035392
2010-04-26 07:43:11 51°14.004 2°55.453 18.0772 0.088364 0.428214 -1.000568
2010-04-26 07:43:17 51°14.004 2°55.453 18.0784 0.088364 0.428225 -1.000568
2010-04-26 07:43:21 51°14.004 2°55.453 18.0772 0.088364 0.428225 -1.000568
2010-04-26 07:43:26 51°14.004 2°55.453 18.0785 0.088364 0.428225 -1.000568
2010-04-26 07:43:31 51°14.004 2°55.453 18.0769 0.088364 0.428231 -1.000568
2010-04-26 07:43:37 51°14.005 2°55.453 18.0822 0.088364 0.428243 -1.000568
2010-04-26 07:43:41 51°14.005 2°55.453 18.0804 0.088364 0.428254 -1.000568
2010-04-26 07:43:46 51°14.004 2°55.453 18.0811 0.088364 0.428254 -1.035392
2010-04-26 07:43:51 51°14.004 2°55.453 18.0852 0.088364 0.428254 -1.035392
2010-04-26 07:43:57 51°14.004 2°55.453 18.0844 0.088364 0.428266 -1.000568
2010-04-26 07:44:01 51°14.004 2°55.453 18.0791 0.088364 0.428272 -1.000568
2010-04-26 07:44:06 51°14.004 2°55.453 18.0826 0.088364 0.428278 -1.035392
2010-04-26 07:44:11 51°14.004 2°55.453 18.0746 0.088364 0.428278 -1.035392
2010-04-26 07:44:17 51°14.004 2°55.452 18.0884 0.088364 0.428289 -1.000568
2010-04-26 07:44:21 51°14.004 2°55.452 18.0985 0.088364 0.428289 -1.000568
2010-04-26 07:44:26 51°14.004 2°55.452 18.0872 0.088364 0.428295 -1.000568
2010-04-26 07:44:31 51°14.004 2°55.452 18.0933 0.088364 0.428301 -1.000568
2010-04-26 07:44:37 51°14.004 2°55.452 18.0897 0.088364 0.428307 -1.000568
2010-04-26 07:44:41 51°14.004 2°55.452 18.0946 0.088364 0.428313 -1.000568
2010-04-26 07:44:46 51°14.004 2°55.452 18.0919 0.088364 0.428324 -1.000568
2010-04-26 07:44:51 51°14.004 2°55.452 18.0881 0.088364 0.428324 -1.000568
2010-04-26 07:44:57 51°14.004 2°55.452 18.0876 0.088364 0.428324 -1.035392
2010-04-26 07:45:01 51°14.004 2°55.452 18.0844 0.088364 0.428336 -1.000568
2010-04-26 07:45:06 51°14.004 2°55.452 18.0872 0.088364 0.428348 -1.035392
2010-04-26 07:45:11 51°14.004 2°55.452 18.0891 0.088364 0.428354 -1.035392
2010-04-26 07:45:17 51°14.004 2°55.452 18.0946 0.088364 0.428354 -1.000568
2010-04-26 07:45:21 51°14.004 2°55.452 18.0878 0.088364 0.428354 -1.000568
2010-04-26 07:45:26 51°14.004 2°55.452 18.0821 0.088364 0.428365 -1.000568
2010-04-26 07:45:32 51°14.004 2°55.452 18.0826 0.088364 0.428365 -1.000568
2010-04-26 07:45:37 51°14.005 2°55.452 18.0908 0.088364 0.428377 -1.000568
2010-04-26 07:45:41 51°14.005 2°55.452 18.09 0.088364 0.428383 -1.000568
2010-04-26 07:45:46 51°14.005 2°55.452 18.0916 0.088364 0.428389 -1.000568
2010-04-26 07:45:52 51°14.005 2°55.453 18.089 0.088364 0.428389 -1.000568
2010-04-26 07:45:57 51°14.005 2°55.453 18.077 0.088364 0.428394 -1.000568
2010-04-26 07:46:01 51°14.005 2°55.452 18.0911 0.088364 0.4284 -1.035392
2010-04-26 07:46:06 51°14.005 2°55.452 18.0842 0.088364 0.428412 -1.035392
2010-04-26 07:46:12 51°14.004 2°55.452 18.0874 0.088364 0.428418 -1.000568
2010-04-26 07:46:17 51°14.004 2°55.453 18.1003 0.088364 0.428424 -1.035392
2010-04-26 07:46:21 51°14.004 2°55.453 18.107 0.088364 0.428424 -1.035392
2010-04-26 07:46:26 51°14.004 2°55.453 18.1045 0.088364 0.428429 -1.000568
2010-04-26 07:46:31 51°14.004 2°55.453 18.0941 0.088364 0.428441 -1.000568
2010-04-26 07:46:37 51°14.004 2°55.453 18.1075 0.088364 0.428447 -1.035392
2010-04-26 07:46:41 51°14.004 2°55.453 18.106 0.088364 0.428447 -1.000568
2010-04-26 07:46:46 51°14.004 2°55.453 18.1063 0.088364 0.428459 -1.000568
2010-04-26 07:46:51 51°14.004 2°55.453 18.1126 0.088364 0.428459 -1.000568
2010-04-26 07:46:57 51°14.004 2°55.453 18.1091 0.088364 0.428459 -1.000568
2010-04-26 07:47:01 51°14.004 2°55.453 18.1132 0.088364 0.428476 -1.035392
2010-04-26 07:47:06 51°14.004 2°55.453 18.1195 0.088364 0.428476 -1.000568
2010-04-26 07:47:11 51°14.004 2°55.453 18.1029 0.088364 0.428482 -1.000568
2010-04-26 07:47:17 51°14.004 2°55.453 18.1074 0.088364 0.428488 -1.035392
2010-04-26 07:47:21 51°14.004 2°55.453 18.1207 0.088364 0.428494 -0.965744
2010-04-26 07:47:26 51°14.004 2°55.453 18.115 0.088364 0.428494 -0.965744
2010-04-26 07:47:31 51°14.004 2°55.453 18.106 0.088364 0.428505 -1.000568
2010-04-26 07:47:37 51°14.004 2°55.453 18.1085 0.088364 0.428505 -1.035392
2010-04-26 07:47:41 51°14.004 2°55.453 18.1149 0.08826 0.427995 -1.035392
2010-04-26 07:47:47 51°14.004 2°55.453 18.1121 0.088364 0.428523 -1.000568
2010-04-26 07:47:51 51°14.004 2°55.453 18.1103 0.088364 0.428523 -1.000568
2010-04-26 07:47:57 51°14.004 2°55.452 18.111 0.088364 0.428529 -1.000568
2010-04-26 07:48:01 51°14.004 2°55.452 18.1075 0.088364 0.428529 -1.035392
2010-04-26 07:48:06 51°14.004 2°55.452 18.0941 0.088364 0.42854 -1.035392
2010-04-26 07:48:11 51°14.004 2°55.452 18.098 0.08826 0.428024 -1.035392
2010-04-26 07:48:17 51°14.004 2°55.452 18.1102 0.08826 0.42803 -0.965744
2010-04-26 07:48:21 51°14.004 2°55.452 18.082 0.08826 0.42803 -0.965744
2010-04-26 07:48:26 51°14.004 2°55.452 18.0957 0.088364 0.428558 -1.035392
2010-04-26 07:48:31 51°14.004 2°55.452 18.1055 0.088364 0.42857 -1.035392
2010-04-26 07:48:37 51°14.004 2°55.452 18.097 0.08826 0.428054 -1.000568
2010-04-26 07:48:41 51°14.004 2°55.452 18.0997 0.08826 0.428059 -1.035392
2010-04-26 07:48:46 51°14.004 2°55.452 18.099 0.08826 0.428059 -1.000568
2010-04-26 07:48:51 51°14.004 2°55.452 18.0986 0.08826 0.428059 -1.000568
2010-04-26 07:48:57 51°14.004 2°55.452 18.1043 0.08826 0.428071 -1.035392
2010-04-26 07:49:01 51°14.004 2°55.452 18.0821 0.08826 0.428077 -0.965744
2010-04-26 07:49:06 51°14.004 2°55.452 18.0989 0.08826 0.428083 -1.000568
2010-04-26 07:49:11 51°14.004 2°55.452 18.0991 0.08826 0.428089 -1.000568
2010-04-26 07:49:17 51°14.004 2°55.452 18.0991 0.08826 0.428094 -1.000568
2010-04-26 07:49:21 51°14.005 2°55.453 18.1037 0.08826 0.428094 -1.000568
2010-04-26 07:49:26 51°14.005 2°55.452 18.1047 0.08826 0.4281 -1.000568
2010-04-26 07:49:31 51°14.004 2°55.452 18.1141 0.08826 0.428112 -0.965744
2010-04-26 07:49:37 51°14.004 2°55.452 18.101 0.08826 0.428118 -1.000568
2010-04-26 07:49:41 51°14.004 2°55.452 18.1051 0.08826 0.428124 -1.035392
2010-04-26 07:49:47 51°14.004 2°55.452 18.1182 0.08826 0.428124 -1.000568
2010-04-26 07:49:52 51°14.004 2°55.452 18.1118 0.08826 0.428124 -1.000568
2010-04-26 07:49:57 51°14.004 2°55.452 18.1089 0.08826 0.428129 -1.000568
2010-04-26 07:50:01 51°14.004 2°55.452 18.106 0.08826 0.428147 -1.035392
2010-04-26 07:50:06 51°14.004 2°55.452 18.101 0.08826 0.428147 -1.000568
2010-04-26 07:50:12 51°14.004 2°55.452 18.1136 0.08826 0.428153 -1.000568
2010-04-26 07:50:17 51°14.004 2°55.452 18.1131 0.08826 0.428164 -1.000568
2010-04-26 07:50:21 51°14.004 2°55.452 18.1154 0.08826 0.428164 -1.000568
2010-04-26 07:50:27 51°14.004 2°55.452 18.1118 0.08826 0.42817 -1.000568
2010-04-26 07:50:32 51°14.004 2°55.452 18.1068 0.08826 0.428176 -1.035392
2010-04-26 07:50:37 51°14.004 2°55.452 18.1137 0.08826 0.428182 -1.000568
2010-04-26 07:50:41 51°14.004 2°55.452 18.117 0.08826 0.428182 -1.000568
2010-04-26 07:50:46 51°14.005 2°55.452 18.1137 0.08826 0.428194 -1.035392
2010-04-26 07:50:52 51°14.005 2°55.452 18.1149 0.08826 0.428194 -1.035392
2010-04-26 07:50:57 51°14.004 2°55.452 18.1083 0.08826 0.428205 -1.000568
2010-04-26 07:51:01 51°14.005 2°55.452 18.1153 0.08826 0.428211 -0.965744
2010-04-26 07:51:06 51°14.004 2°55.452 18.1057 0.08826 0.428217 -1.035392
2010-04-26 07:51:11 51°14.004 2°55.451 18.1064 0.08826 0.428229 -1.000568
2010-04-26 07:51:17 51°14.004 2°55.451 18.1075 0.08826 0.428229 -1.035392
2010-04-26 07:51:21 51°14.004 2°55.451 18.1143 0.08826 0.42824 -1.000568
2010-04-26 07:51:44 51°14.004 2°55.451 18.1266 0.08826 0.428258 -1.035392
2010-04-26 07:51:49 51°14.004 2°55.451 18.1218 0.08826 0.428264 -1.035392
2010-04-26 07:51:53 51°14.004 2°55.451 18.1053 0.08826 0.428275 -1.000568
2010-04-26 07:51:58 51°14.004 2°55.451 18.124 0.08826 0.428281 -1.035392
2010-04-26 07:52:04 51°14.004 2°55.451 18.1237 0.08826 0.428281 -1.035392
2010-04-26 07:52:09 51°14.004 2°55.451 18.1248 0.08826 0.428281 -1.000568
2010-04-26 07:52:13 51°14.004 2°55.451 18.1257 0.08826 0.428287 -1.000568
2010-04-26 07:52:18 51°14.004 2°55.451 18.1223 0.08826 0.428293 -1.035392
2010-04-26 07:52:23 51°14.004 2°55.451 18.1189 0.08826 0.428299 -1.035392
2010-04-26 07:52:28 51°14.004 2°55.451 18.1313 0.08826 0.428316 -0.965744
2010-04-26 07:52:33 51°14.004 2°55.451 18.114 0.08826 0.428316 -1.000568
2010-04-26 07:52:38 51°14.004 2°55.451 18.1246 0.08826 0.428316 -1.000568
2010-04-26 07:52:43 51°14.004 2°55.451 18.124 0.08826 0.428322 -1.000568
2010-04-26 07:52:44 51°14.004 2°55.451 18.124 0.08826 0.428322 -1.000568
2010-04-26 07:52:53 51°14.004 2°55.451 18.1342 0.08826 0.428334 -1.000568
2010-04-26 07:52:53 51°14.004 2°55.451 18.1342 0.08826 0.428334 -1.000568
2010-04-26 07:53:09 51°14.004 2°55.451 18.1314 0.08826 0.428351 -1.035392
2010-04-26 07:53:27 51°14.005 2°55.451 18.1493 0.08826 0.428369 -1.035392
2010-04-26 07:53:33 51°14.005 2°55.452 18.1277 0.08826 0.428381 -1.000568
2010-04-26 07:53:49 51°14.005 2°55.452 18.1359 0.088156 0.427876 -1.035392
2010-04-26 07:53:49 51°14.005 2°55.452 18.1359 0.088156 0.427876 -1.035392
2010-04-26 07:53:58 51°14.005 2°55.452 18.1347 0.088156 0.427888 -1.000568
2010-04-26 07:54:04 51°14.005 2°55.452 18.1346 0.088156 0.427888 -1.000568
2010-04-26 07:54:22 51°14.005 2°55.452 18.1174 0.088156 0.427917 -0.965744
2010-04-26 07:54:27 51°14.005 2°55.452 18.1353 0.088156 0.427923 -1.035392
2010-04-26 07:54:33 51°14.005 2°55.452 18.1276 0.088156 0.427923 -1.035392
2010-04-26 07:54:37 51°14.005 2°55.452 18.1283 0.088156 0.427923 -1.000568
2010-04-26 07:54:42 51°14.005 2°55.451 18.1305 0.088156 0.427934 -1.000568
2010-04-26 07:54:48 51°14.005 2°55.451 18.1306 0.088156 0.42794 -1.000568
2010-04-26 07:54:53 51°14.005 2°55.451 18.1331 0.088156 0.427946 -1.000568
2010-04-26 07:54:57 51°14.005 2°55.451 18.1412 0.088156 0.427946 -1.000568
2010-04-26 07:55:02 51°14.005 2°55.451 18.1375 0.088156 0.427952 -1.035392
2010-04-26 07:55:07 51°14.005 2°55.451 18.0867 0.088156 0.427964 -1.000568
2010-04-26 07:55:13 51°14.005 2°55.451 18.0892 0.088156 0.427969 -1.000568
2010-04-26 07:55:17 51°14.005 2°55.451 18.1176 0.088156 0.427975 -1.035392
2010-04-26 07:55:22 51°14.005 2°55.451 18.1228 0.088156 0.427981 -1.035392
2010-04-26 07:55:28 51°14.005 2°55.451 18.14 0.088156 0.427981 -1.035392
2010-04-26 07:55:33 51°14.005 2°55.451 18.1382 0.088156 0.427987 -1.000568
2010-04-26 07:55:37 51°14.005 2°55.451 18.1382 0.088156 0.427999 -1.000568
2010-04-26 07:55:42 51°14.005 2°55.451 18.1365 0.088156 0.428004 -1.000568
2010-04-26 07:55:47 51°14.005 2°55.451 18.1382 0.088156 0.42801 -1.035392
2010-04-26 07:55:53 51°14.005 2°55.451 18.1465 0.088156 0.428016 -1.000568
2010-04-26 07:55:57 51°14.005 2°55.452 18.1523 0.088156 0.428016 -1.000568
2010-04-26 07:56:02 51°14.005 2°55.451 18.1351 0.088156 0.428022 -1.000568
2010-04-26 07:56:07 51°14.004 2°55.451 18.1367 0.088156 0.428034 -1.035392
2010-04-26 07:56:13 51°14.004 2°55.451 18.1387 0.088156 0.428039 -1.000568
2010-04-26 07:56:17 51°14.004 2°55.451 18.1391 0.088156 0.428039 -1.000568
2010-04-26 07:56:22 51°14.004 2°55.451 18.1435 0.088156 0.428039 -1.000568
2010-04-26 07:56:28 51°14.004 2°55.451 18.1324 0.088156 0.428039 -1.000568
2010-04-26 07:56:33 51°14.004 2°55.451 18.1447 0.088156 0.428057 -1.000568
2010-04-26 07:56:37 51°14.004 2°55.451 18.1298 0.088156 0.428063 -1.000568
2010-04-26 07:56:43 51°14.004 2°55.451 18.1314 0.088156 0.428069 -1.000568
2010-04-26 07:56:47 51°14.004 2°55.451 18.1514 0.088156 0.428075 -1.000568
2010-04-26 07:56:53 51°14.004 2°55.451 18.1354 0.088156 0.42808 -1.035392
2010-04-26 07:56:57 51°14.004 2°55.451 18.1577 0.088156 0.42808 -1.035392
2010-04-26 07:57:02 51°14.004 2°55.451 18.1508 0.088156 0.42808 -1.000568
2010-04-26 07:57:07 51°14.004 2°55.451 18.1478 0.088156 0.428092 -1.000568
2010-04-26 07:57:13 51°14.004 2°55.451 18.1402 0.088156 0.428104 -1.000568
2010-04-26 07:57:17 51°14.004 2°55.451 18.1374 0.088156 0.428104 -1.000568
2010-04-26 07:57:22 51°14.004 2°55.451 18.1364 0.088156 0.428115 -1.000568
2010-04-26 07:57:27 51°14.004 2°55.451 18.1209 0.088156 0.428115 -1.000568
2010-04-26 07:57:33 51°14.004 2°55.451 18.1059 0.088156 0.428121 -1.070216
2010-04-26 07:57:37 51°14.004 2°55.451 18.1307 0.088156 0.428127 -1.000568
2010-04-26 07:57:42 51°14.004 2°55.451 18.1532 0.088156 0.428133 -1.000568
2010-04-26 07:57:47 51°14.004 2°55.451 18.1387 0.088156 0.428139 -1.000568
2010-04-26 07:57:53 51°14.004 2°55.451 18.1469 0.088156 0.428145 -1.035392
2010-04-26 07:57:57 51°14.004 2°55.451 18.1379 0.088156 0.428145 -1.035392
2010-04-26 07:58:02 51°14.004 2°55.451 18.1502 0.088052 0.427628 -1.000568
2010-04-26 07:58:07 51°14.004 2°55.451 18.127 0.088156 0.428156 -1.000568
2010-04-26 07:58:13 51°14.004 2°55.451 18.1364 0.088156 0.428168 -1.000568
2010-04-26 07:58:17 51°14.004 2°55.451 18.1208 0.088156 0.428168 -1.035392
2010-04-26 07:58:22 51°14.004 2°55.451 18.1405 0.088052 0.427657 -1.000568
2010-04-26 07:58:28 51°14.005 2°55.451 18.1415 0.088052 0.427657 -1.000568
2010-04-26 07:58:33 51°14.005 2°55.451 18.1435 0.088052 0.427663 -1.000568
2010-04-26 07:58:37 51°14.005 2°55.451 18.1324 0.088052 0.427669 -1.035392
2010-04-26 07:58:43 51°14.005 2°55.451 18.1526 0.088156 0.428191 -1.035392
2010-04-26 07:58:48 51°14.005 2°55.451 18.1341 0.088052 0.427675 -1.000568
2010-04-26 07:58:53 51°14.005 2°55.451 18.1437 0.088052 0.427686 -1.000568
2010-04-26 07:58:57 51°14.005 2°55.451 18.1555 0.088052 0.427686 -1.000568
2010-04-26 07:59:02 51°14.005 2°55.451 18.1555 0.088052 0.427698 -1.035392
2010-04-26 07:59:07 51°14.005 2°55.451 18.1529 0.088052 0.427704 -1.000568
2010-04-26 07:59:13 51°14.005 2°55.451 18.1478 0.088052 0.427704 -1.035392
2010-04-26 07:59:17 51°14.005 2°55.452 18.1627 0.088052 0.42771 -1.000568
2010-04-26 07:59:22 51°14.005 2°55.452 18.1479 0.088052 0.427722 -1.035392
2010-04-26 07:59:27 51°14.005 2°55.452 18.1184 0.088052 0.427722 -1.035392
2010-04-26 07:59:33 51°14.004 2°55.451 18.1488 0.088052 0.427722 -1.035392
2010-04-26 07:59:37 51°14.005 2°55.452 18.1549 0.088052 0.427733 -1.000568
2010-04-26 07:59:43 51°14.005 2°55.452 18.153 0.088052 0.427745 -1.035392
2010-04-26 07:59:47 51°14.005 2°55.452 18.1601 0.088052 0.427745 -1.035392
2010-04-26 07:59:53 51°14.005 2°55.452 18.1589 0.088052 0.427757 -1.000568
2010-04-26 07:59:57 51°14.005 2°55.452 18.1457 0.088052 0.427757 -1.000568
2010-04-26 08:00:02 51°14.005 2°55.452 18.1579 0.088052 0.427762 -1.035392
2010-04-26 08:00:07 51°14.005 2°55.452 18.1582 0.088052 0.427768 -1.000568
2010-04-26 08:00:13 51°14.005 2°55.452 18.1702 0.088052 0.427768 -1.035392
2010-04-26 08:00:17 51°14.005 2°55.452 18.1438 0.088052 0.42778 -1.000568
2010-04-26 08:00:22 51°14.005 2°55.452 18.1571 0.088052 0.427786 -0.965744
2010-04-26 08:00:27 51°14.005 2°55.452 18.1485 0.088052 0.427786 -0.965744
2010-04-26 08:00:33 51°14.005 2°55.452 18.1511 0.088052 0.427797 -1.000568
2010-04-26 08:00:37 51°14.005 2°55.452 18.1662 0.088052 0.427803 -1.035392
2010-04-26 08:00:42 51°14.005 2°55.452 18.1623 0.088052 0.427803 -1.035392
2010-04-26 08:00:48 51°14.005 2°55.452 18.1464 0.088052 0.427809 -1.035392
2010-04-26 08:00:53 51°14.005 2°55.452 18.1591 0.088052 0.427821 -1.000568
2010-04-26 08:00:57 51°14.005 2°55.452 18.1686 0.088052 0.427821 -1.000568
2010-04-26 08:01:02 51°14.005 2°55.452 18.1639 0.088052 0.427833 -1.000568
2010-04-26 08:01:07 51°14.005 2°55.452 18.1458 0.088052 0.427838 -1.000568
2010-04-26 08:01:13 51°14.005 2°55.452 18.1238 0.088052 0.427844 -1.000568
2010-04-26 08:01:17 51°14.005 2°55.452 18.143 0.088052 0.42785 -1.035392
2010-04-26 08:01:22 51°14.005 2°55.452 18.156 0.088052 0.427856 -1.035392
2010-04-26 08:01:28 51°14.005 2°55.452 18.171 0.088052 0.427856 -1.035392
2010-04-26 08:01:33 51°14.005 2°55.452 18.1639 0.088052 0.427862 -1.035392
2010-04-26 08:01:37 51°14.005 2°55.452 18.1153 0.088052 0.427868 -1.035392
2010-04-26 08:01:42 51°14.005 2°55.452 18.1257 0.088052 0.427879 -1.000568
2010-04-26 08:01:47 51°14.005 2°55.451 18.1583 0.088052 0.427885 -1.000568
2010-04-26 08:01:53 51°14.005 2°55.452 18.1662 0.088052 0.427891 -1.035392
2010-04-26 08:01:57 51°14.005 2°55.452 18.1435 0.088052 0.427891 -1.035392
2010-04-26 08:02:02 51°14.005 2°55.451 18.1683 0.088052 0.427903 -1.035392
2010-04-26 08:02:07 51°14.005 2°55.452 18.1613 0.088052 0.427903 -1.000568
2010-04-26 08:02:13 51°14.005 2°55.451 18.1552 0.088052 0.427914 -1.000568
2010-04-26 08:02:17 51°14.005 2°55.451 18.1562 0.088052 0.42792 -1.035392
2010-04-26 08:02:22 51°14.005 2°55.451 18.1581 0.088052 0.427932 -1.035392
2010-04-26 08:02:27 51°14.005 2°55.451 18.1687 0.088052 0.427932 -1.035392
2010-04-26 08:02:33 51°14.005 2°55.451 18.1654 0.087948 0.427415 -1.000568
2010-04-26 08:02:37 51°14.005 2°55.451 18.1543 0.088052 0.427944 -1.000568
2010-04-26 08:02:42 51°14.005 2°55.451 18.1698 0.088052 0.42795 -1.000568
2010-04-26 08:02:48 51°14.005 2°55.451 18.1505 0.087948 0.427444 -1.000568
2010-04-26 08:02:53 51°14.005 2°55.451 18.1575 0.088052 0.427967 -1.035392
2010-04-26 08:02:57 51°14.005 2°55.451 18.1829 0.088052 0.427967 -1.035392
2010-04-26 08:03:02 51°14.005 2°55.451 18.1628 0.088052 0.427973 -1.035392
2010-04-26 08:03:07 51°14.005 2°55.451 18.159 0.088052 0.427985 -1.035392
2010-04-26 08:03:13 51°14.005 2°55.451 18.1593 0.087948 0.427473 -1.000568
2010-04-26 08:03:17 51°14.005 2°55.451 18.1664 0.088052 0.428002 -0.965744
2010-04-26 08:03:22 51°14.005 2°55.451 18.1656 0.087948 0.427485 -1.000568
2010-04-26 08:03:28 51°14.005 2°55.451 18.1593 0.087948 0.427485 -1.000568
2010-04-26 08:03:33 51°14.005 2°55.451 18.1682 0.087948 0.427491 -1.035392
2010-04-26 08:03:37 51°14.005 2°55.451 18.1755 0.087948 0.427503 -1.035392
2010-04-26 08:03:43 51°14.005 2°55.451 18.1808 0.087948 0.427514 -1.000568
2010-04-26 08:03:48 51°14.005 2°55.451 18.175 0.087948 0.42752 -1.000568
2010-04-26 08:03:53 51°14.005 2°55.451 18.1672 0.087948 0.427526 -1.035392
2010-04-26 08:03:57 51°14.005 2°55.451 18.1711 0.087948 0.427526 -1.035392
2010-04-26 08:04:02 51°14.005 2°55.451 18.1785 0.087948 0.427532 -1.000568
2010-04-26 08:04:07 51°14.005 2°55.451 18.174 0.087948 0.427538 -1.035392
2010-04-26 08:04:13 51°14.005 2°55.451 18.1747 0.087948 0.427549 -1.000568
2010-04-26 08:04:17 51°14.005 2°55.451 18.1774 0.087948 0.427561 -1.000568
2010-04-26 08:04:22 51°14.005 2°55.451 18.1857 0.087948 0.427561 -1.000568
2010-04-26 08:04:27 51°14.005 2°55.451 18.1686 0.087948 0.427561 -1.000568
2010-04-26 08:04:33 51°14.005 2°55.451 18.1792 0.087948 0.427573 -1.035392
2010-04-26 08:04:37 51°14.005 2°55.451 18.1766 0.087948 0.427579 -1.035392
2010-04-26 08:04:42 51°14.005 2°55.451 18.1718 0.087948 0.42759 -1.000568
2010-04-26 08:04:47 51°14.005 2°55.451 18.1246 0.087948 0.427596 -1.000568
2010-04-26 08:04:53 51°14.005 2°55.451 18.1909 0.087948 0.427614 -1.035392
2010-04-26 08:04:57 51°14.005 2°55.451 18.1805 0.087948 0.427614 -1.035392
2010-04-26 08:05:02 51°14.005 2°55.451 18.1693 0.087948 0.427614 -1.000568
2010-04-26 08:05:07 51°14.005 2°55.451 18.1809 0.087948 0.42762 -1.000568
2010-04-26 08:05:12 51°14.005 2°55.451 18.1779 0.087948 0.427637 -1.035392
2010-04-26 08:05:17 51°14.005 2°55.451 18.1773 0.087948 0.427649 -1.000568
2010-04-26 08:05:22 51°14.005 2°55.451 18.177 0.087948 0.427649 -1.000568
2010-04-26 08:05:27 51°14.004 2°55.451 18.181 0.087948 0.427649 -1.000568
2010-04-26 08:05:33 51°14.005 2°55.451 18.1814 0.087948 0.427655 -1.000568
2010-04-26 08:05:37 51°14.005 2°55.451 18.1734 0.087948 0.427666 -1.035392
2010-04-26 08:05:42 51°14.005 2°55.451 18.1877 0.087948 0.427678 -1.000568
2010-04-26 08:05:48 51°14.005 2°55.451 18.1836 0.087948 0.427684 -1.000568
2010-04-26 08:05:53 51°14.004 2°55.451 18.1854 0.087948 0.427684 -1.000568
2010-04-26 08:05:57 51°14.004 2°55.451 18.1909 0.087948 0.427684 -1.000568
2010-04-26 08:06:02 51°14.004 2°55.451 18.1848 0.087948 0.427696 -0.965744
2010-04-26 08:06:07 51°14.004 2°55.451 18.1818 0.087948 0.427707 -1.000568
2010-04-26 08:06:13 51°14.004 2°55.451 18.204 0.087948 0.427713 -1.000568
2010-04-26 08:06:17 51°14.004 2°55.451 18.1967 0.087948 0.427725 -1.000568
2010-04-26 08:06:22 51°14.004 2°55.451 18.1946 0.087948 0.427725 -1.035392
2010-04-26 08:06:27 51°14.004 2°55.451 18.1902 0.087948 0.427725 -1.035392
2010-04-26 08:06:33 51°14.004 2°55.451 18.1947 0.087948 0.427731 -0.965744
2010-04-26 08:06:37 51°14.004 2°55.451 18.1993 0.087948 0.427748 -1.000568
2010-04-26 08:06:43 51°14.004 2°55.451 18.1882 0.087948 0.427748 -1.035392
2010-04-26 08:06:47 51°14.004 2°55.451 18.1794 0.087948 0.427754 -1.000568
2010-04-26 08:06:53 51°14.004 2°55.451 18.2004 0.087948 0.427766 -1.000568
2010-04-26 08:06:57 51°14.004 2°55.451 18.1782 0.087948 0.427766 -1.000568
2010-04-26 08:07:02 51°14.004 2°55.451 18.1887 0.087948 0.427772 -1.035392
2010-04-26 08:07:07 51°14.004 2°55.451 18.1801 0.087948 0.427778 -0.965744
2010-04-26 08:07:12 51°14.004 2°55.451 18.2055 0.087948 0.427789 -1.000568
2010-04-26 08:07:17 51°14.004 2°55.451 18.1889 0.087948 0.427795 -1.035392
2010-04-26 08:07:22 51°14.004 2°55.451 18.1839 0.087948 0.427807 -1.035392
2010-04-26 08:07:27 51°14.004 2°55.451 18.1853 0.087948 0.427807 -1.035392
2010-04-26 08:07:33 51°14.004 2°55.451 18.1884 0.087948 0.427807 -1.035392
2010-04-26 08:07:37 51°14.004 2°55.451 18.1809 0.087948 0.427819 -1.035392
2010-04-26 08:07:42 51°14.004 2°55.451 18.19 0.087844 0.427307 -1.035392
2010-04-26 08:07:48 51°14.005 2°55.451 18.1974 0.087844 0.427307 -1.000568
2010-04-26 08:07:53 51°14.005 2°55.451 18.2059 0.087844 0.42733 -1.000568
2010-04-26 08:07:57 51°14.005 2°55.451 18.2012 0.087844 0.42733 -1.000568
2010-04-26 08:08:02 51°14.005 2°55.451 18.1561 0.087844 0.427324 -1.000568
2010-04-26 08:08:07 51°14.005 2°55.451 18.1837 0.087844 0.427336 -1.035392
2010-04-26 08:08:13 51°14.005 2°55.451 18.1953 0.087844 0.427342 -1.035392
2010-04-26 08:08:17 51°14.005 2°55.451 18.202 0.087844 0.427354 -1.035392
2010-04-26 08:08:22 51°14.005 2°55.451 18.1849 0.087844 0.42736 -1.035392
2010-04-26 08:08:28 51°14.005 2°55.451 18.196 0.087844 0.42736 -1.035392
2010-04-26 08:08:33 51°14.005 2°55.451 18.2083 0.087844 0.427365 -1.035392
2010-04-26 08:08:37 51°14.004 2°55.451 18.1734 0.087844 0.427371 -1.000568
2010-04-26 08:08:43 51°14.005 2°55.451 18.189 0.087844 0.427395 -1.000568
2010-04-26 08:08:48 51°14.005 2°55.451 18.1976 0.087844 0.427395 -1.035392
2010-04-26 08:08:53 51°14.005 2°55.451 18.1876 0.087844 0.427412 -1.035392
2010-04-26 08:08:57 51°14.005 2°55.451 18.1985 0.087844 0.427412 -1.035392
2010-04-26 08:09:02 51°14.005 2°55.451 18.198 0.087844 0.427412 -1.000568
2010-04-26 08:09:07 51°14.005 2°55.451 18.2033 0.087844 0.427418 -1.000568
2010-04-26 08:09:13 51°14.005 2°55.451 18.2028 0.087844 0.427436 -1.035392
2010-04-26 08:09:17 51°14.005 2°55.451 18.2017 0.087844 0.427442 -1.000568
2010-04-26 08:09:22 51°14.005 2°55.451 18.208 0.087844 0.427447 -1.035392
2010-04-26 08:09:27 51°14.005 2°55.451 18.2143 0.087844 0.427447 -1.035392
2010-04-26 08:09:33 51°14.005 2°55.451 18.2073 0.087844 0.427453 -1.000568
2010-04-26 08:09:37 51°14.005 2°55.451 18.1859 0.087844 0.427465 -1.000568
2010-04-26 08:09:42 51°14.005 2°55.451 18.1984 0.087844 0.427471 -1.035392
2010-04-26 08:09:47 51°14.005 2°55.451 18.2112 0.087844 0.427482 -1.035392
2010-04-26 08:09:53 51°14.005 2°55.451 18.2088 0.087844 0.427488 -1.000568
2010-04-26 08:09:57 51°14.005 2°55.451 18.2099 0.087844 0.427488 -1.000568
2010-04-26 08:10:03 51°14.005 2°55.451 18.1785 0.087844 0.4275 -1.000568
2010-04-26 08:10:07 51°14.005 2°55.451 18.2045 0.087844 0.427506 -1.000568
2010-04-26 08:10:13 51°14.005 2°55.451 18.2004 0.087844 0.427512 -1.035392
2010-04-26 08:10:17 51°14.005 2°55.451 18.2184 0.087844 0.427523 -1.000568
2010-04-26 08:10:22 51°14.005 2°55.451 18.183 0.087844 0.427523 -1.000568
2010-04-26 08:10:27 51°14.005 2°55.451 18.1982 0.087844 0.427523 -1.000568
2010-04-26 08:10:33 51°14.005 2°55.451 18.1947 0.087844 0.427535 -1.035392
2010-04-26 08:10:37 51°14.005 2°55.451 18.2117 0.087844 0.427547 -1.000568
2010-04-26 08:10:41 51°14.005 2°55.451 18.2027 0.087844 0.427553 -1.000568
2010-04-26 08:10:48 51°14.004 2°55.451 18.2091 0.087844 0.42757 -1.035392
2010-04-26 08:10:53 51°14.005 2°55.451 18.199 0.087844 0.42757 -1.035392
2010-04-26 08:10:57 51°14.005 2°55.451 18.2123 0.087844 0.42757 -1.035392
2010-04-26 08:11:02 51°14.004 2°55.451 18.2202 0.087844 0.427582 -0.965744
2010-04-26 08:11:07 51°14.004 2°55.451 18.2144 0.087844 0.427594 -1.000568
2010-04-26 08:11:13 51°14.004 2°55.451 18.2139 0.087844 0.427594 -1.035392
2010-04-26 08:11:17 51°14.004 2°55.451 18.2155 0.087844 0.427611 -1.000568
2010-04-26 08:11:22 51°14.004 2°55.451 18.2082 0.087844 0.427623 -1.000568
2010-04-26 08:11:27 51°14.004 2°55.451 18.2229 0.087844 0.427623 -1.000568
2010-04-26 08:11:33 51°14.004 2°55.451 18.2089 0.087844 0.427623 -1.035392
2010-04-26 08:11:37 51°14.004 2°55.451 18.2086 0.087844 0.427623 -1.000568
2010-04-26 08:11:43 51°14.004 2°55.451 18.2186 0.087844 0.427641 -1.000568
2010-04-26 08:11:47 51°14.004 2°55.451 18.2075 0.087844 0.427646 -1.000568
2010-04-26 08:11:53 51°14.004 2°55.452 18.2229 0.087844 0.427664 -1.000568
2010-04-26 08:11:57 51°14.004 2°55.451 18.2209 0.087844 0.427664 -1.000568
2010-04-26 08:12:02 51°14.004 2°55.451 18.2309 0.08774 0.427134 -1.000568
2010-04-26 08:12:07 51°14.004 2°55.452 18.2365 0.08774 0.42714 -1.000568
2010-04-26 08:12:12 51°14.004 2°55.452 18.2175 0.087844 0.42767 -1.000568
2010-04-26 08:12:17 51°14.004 2°55.451 18.2024 0.08774 0.427152 -1.000568
2010-04-26 08:12:22 51°14.004 2°55.452 18.2228 0.08774 0.42717 -1.035392
2010-04-26 08:12:27 51°14.004 2°55.452 18.2107 0.08774 0.42717 -1.035392
2010-04-26 08:12:33 51°14.004 2°55.451 18.2234 0.08774 0.427164 -1.035392
2010-04-26 08:12:37 51°14.004 2°55.452 18.225 0.08774 0.427175 -0.965744
2010-04-26 08:12:42 51°14.004 2°55.452 18.2326 0.08774 0.427181 -1.000568
2010-04-26 08:12:48 51°14.004 2°55.452 18.2198 0.08774 0.427193 -1.035392
2010-04-26 08:12:53 51°14.004 2°55.451 18.2272 0.08774 0.427199 -1.035392
2010-04-26 08:12:57 51°14.004 2°55.452 18.2269 0.08774 0.427199 -1.035392
2010-04-26 08:13:02 51°14.004 2°55.452 18.2343 0.08774 0.427246 -1.035392
2010-04-26 08:13:07 51°14.004 2°55.451 18.23 0.08774 0.427222 -1.035392
2010-04-26 08:13:13 51°14.004 2°55.452 18.2326 0.08774 0.427252 -1.035392
2010-04-26 08:13:17 51°14.004 2°55.451 18.2314 0.08774 0.427246 -1.000568
2010-04-26 08:13:22 51°14.004 2°55.452 18.2233 0.08774 0.427257 -1.000568
2010-04-26 08:13:27 51°14.004 2°55.451 18.2235 0.08774 0.427257 -1.000568
2010-04-26 08:13:33 51°14.004 2°55.452 18.2242 0.08774 0.427263 -1.000568
2010-04-26 08:13:37 51°14.004 2°55.451 18.221 0.08774 0.427287 -1.000568
2010-04-26 08:13:42 51°14.004 2°55.451 18.23 0.08774 0.427293 -1.000568
2010-04-26 08:13:47 51°14.004 2°55.451 18.2306 0.08774 0.42731 -1.000568
2010-04-26 08:13:52 51°14.004 2°55.452 18.2299 0.08774 0.427298 -1.000568
2010-04-26 08:13:57 51°14.004 2°55.451 18.2347 0.08774 0.427298 -1.000568
2010-04-26 08:14:02 51°14.004 2°55.452 18.2374 0.08774 0.427322 -1.000568
2010-04-26 08:14:07 51°14.004 2°55.451 18.2355 0.08774 0.427316 -1.035392
2010-04-26 08:14:13 51°14.004 2°55.452 18.2317 0.08774 0.427351 -1.000568
2010-04-26 08:14:17 51°14.004 2°55.452 18.2279 0.08774 0.427351 -1.035392
2010-04-26 08:14:22 51°14.004 2°55.452 18.2414 0.08774 0.427363 -1.035392
2010-04-26 08:14:28 51°14.004 2°55.451 18.2346 0.08774 0.427363 -1.035392
2010-04-26 08:14:33 51°14.004 2°55.452 18.2403 0.08774 0.427369 -1.000568
2010-04-26 08:14:37 51°14.004 2°55.452 18.2418 0.08774 0.427375 -1.000568
2010-04-26 08:14:43 51°14.004 2°55.452 18.2184 0.08774 0.42738 -1.000568
2010-04-26 08:14:48 51°14.004 2°55.452 18.2221 0.08774 0.427369 -1.035392
2010-04-26 08:14:53 51°14.004 2°55.452 18.2497 0.08774 0.427392 -1.035392
2010-04-26 08:14:57 51°14.004 2°55.452 18.2453 0.08774 0.427392 -1.035392
2010-04-26 08:15:02 51°14.004 2°55.452 18.2372 0.08774 0.427398 -1.035392
2010-04-26 08:15:07 51°14.004 2°55.452 18.2396 0.08774 0.427398 -1.000568
2010-04-26 08:15:13 51°14.004 2°55.452 18.2356 0.08774 0.427421 -1.000568
2010-04-26 08:15:17 51°14.004 2°55.452 18.2343 0.08774 0.427427 -1.000568
2010-04-26 08:15:22 51°14.004 2°55.452 18.2362 0.08774 0.427421 -1.035392
2010-04-26 08:15:27 51°14.004 2°55.452 18.236 0.08774 0.427421 -1.035392
2010-04-26 08:15:33 51°14.004 2°55.452 18.2368 0.08774 0.427439 -1.035392
2010-04-26 08:15:37 51°14.004 2°55.452 18.2428 0.08774 0.427439 -1.000568
2010-04-26 08:15:42 51°14.004 2°55.452 18.245 0.08774 0.427474 -1.035392
2010-04-26 08:15:47 51°14.004 2°55.452 18.2228 0.08774 0.427457 -1.000568
2010-04-26 08:15:53 51°14.004 2°55.452 18.2306 0.08774 0.427451 -0.965744
2010-04-26 08:15:57 51°14.004 2°55.452 18.2563 0.08774 0.427451 -0.965744
2010-04-26 08:16:02 51°14.004 2°55.452 18.2476 0.08774 0.427468 -1.035392
2010-04-26 08:16:07 51°14.004 2°55.452 18.2522 0.08774 0.42748 -1.000568
2010-04-26 08:16:13 51°14.004 2°55.452 18.2566 0.08774 0.427468 -1.000568
2010-04-26 08:16:17 51°14.004 2°55.452 18.2396 0.08774 0.427509 -1.000568
2010-04-26 08:16:23 51°14.004 2°55.452 18.2285 0.08774 0.427498 -1.000568
2010-04-26 08:16:27 51°14.004 2°55.452 18.2307 0.08774 0.427498 -1.000568
2010-04-26 08:16:33 51°14.004 2°55.452 18.25 0.08774 0.427504 -0.965744
2010-04-26 08:16:37 51°14.004 2°55.452 18.248 0.08774 0.427515 -1.000568
2010-04-26 08:16:43 51°14.004 2°55.452 18.2423 0.087636 0.427026 -1.035392
2010-04-26 08:16:47 51°14.004 2°55.452 18.229 0.087636 0.427015 -1.000568
2010-04-26 08:16:53 51°14.004 2°55.452 18.2522 0.08774 0.427568 -1.000568
2010-04-26 08:16:57 51°14.004 2°55.452 18.2477 0.08774 0.427568 -1.000568
2010-04-26 08:17:03 51°14.004 2°55.452 18.2344 0.08774 0.427545 -1.000568
2010-04-26 08:17:07 51°14.004 2°55.452 18.2603 0.08774 0.427592 -1.000568
2010-04-26 08:17:13 51°14.004 2°55.452 18.2417 0.087636 0.427056 -1.000568
2010-04-26 08:17:17 51°14.004 2°55.452 18.2445 0.087636 0.427085 -1.035392
2010-04-26 08:17:22 51°14.003 2°55.452 18.2347 0.087636 0.427079 -1.000568
2010-04-26 08:17:27 51°14.004 2°55.452 18.2509 0.087636 0.427079 -1.000568
2010-04-26 08:17:33 51°14.004 2°55.452 18.2499 0.087636 0.427091 -1.000568
2010-04-26 08:17:37 51°14.004 2°55.452 18.2595 0.087636 0.427102 -1.035392
2010-04-26 08:17:42 51°14.004 2°55.452 18.2517 0.087636 0.427114 -1.000568
2010-04-26 08:17:48 51°14.004 2°55.452 18.2573 0.087636 0.427114 -1.000568
2010-04-26 08:17:53 51°14.004 2°55.452 18.2625 0.087636 0.427126 -1.000568
2010-04-26 08:17:57 51°14.004 2°55.452 18.2293 0.087636 0.427126 -1.000568
2010-04-26 08:18:02 51°14.004 2°55.452 18.2426 0.087636 0.427114 -1.035392
2010-04-26 08:18:07 51°14.004 2°55.452 18.2622 0.087636 0.427149 -1.000568
2010-04-26 08:18:13 51°14.004 2°55.452 18.2481 0.087636 0.427132 -1.000568
2010-04-26 08:18:17 51°14.004 2°55.452 18.2297 0.087636 0.427143 -1.035392
2010-04-26 08:18:22 51°14.004 2°55.452 18.2779 0.087636 0.427161 -0.965744
2010-04-26 08:18:27 51°14.004 2°55.452 18.2553 0.087636 0.427161 -0.965744
2010-04-26 08:18:33 51°14.004 2°55.452 18.2594 0.087636 0.427161 -1.035392
2010-04-26 08:18:37 51°14.004 2°55.452 18.26 0.087636 0.427173 -1.035392
2010-04-26 08:18:42 51°14.004 2°55.452 18.2727 0.087636 0.427179 -1.000568
2010-04-26 08:18:47 51°14.004 2°55.452 18.2632 0.087636 0.427185 -0.965744
2010-04-26 08:18:52 51°14.004 2°55.452 18.2607 0.087636 0.427196 -1.000568
2010-04-26 08:18:57 51°14.004 2°55.452 18.26 0.087636 0.427196 -1.000568
2010-04-26 08:19:02 51°14.004 2°55.452 18.2616 0.087636 0.427202 -0.965744
2010-04-26 08:19:07 51°14.004 2°55.452 18.2645 0.087636 0.427214 -1.000568
2010-04-26 08:19:13 51°14.004 2°55.451 18.2592 0.087636 0.427214 -1.035392
2010-04-26 08:19:17 51°14.004 2°55.451 18.2635 0.087636 0.427231 -1.035392
2010-04-26 08:19:22 51°14.004 2°55.451 18.275 0.087636 0.427237 -1.000568
2010-04-26 08:19:27 51°14.004 2°55.452 18.2687 0.087636 0.427237 -1.000568
2010-04-26 08:19:32 51°14.004 2°55.451 18.2583 0.087636 0.427249 -1.035392
2010-04-26 08:19:37 51°14.004 2°55.451 18.2713 0.087636 0.427261 -1.035392
2010-04-26 08:19:42 51°14.004 2°55.452 18.2733 0.087636 0.427261 -1.000568
2010-04-26 08:19:47 51°14.004 2°55.451 18.2709 0.087636 0.427284 -0.965744
2010-04-26 08:19:53 51°14.004 2°55.451 18.2767 0.087636 0.427278 -1.035392
2010-04-26 08:19:57 51°14.004 2°55.451 18.2681 0.087636 0.427278 -1.035392
2010-04-26 08:20:02 51°14.004 2°55.451 18.274 0.087636 0.427296 -1.000568
2010-04-26 08:20:07 51°14.004 2°55.451 18.2731 0.087636 0.427302 -1.000568
2010-04-26 08:20:13 51°14.004 2°55.452 18.2816 0.087636 0.427314 -1.035392
2010-04-26 08:20:17 51°14.004 2°55.451 18.2803 0.087636 0.427325 -1.000568
2010-04-26 08:20:22 51°14.005 2°55.452 18.2809 0.087636 0.427325 -1.035392
2010-04-26 08:20:27 51°14.004 2°55.451 18.2537 0.087636 0.427325 -1.035392
2010-04-26 08:20:33 51°14.004 2°55.451 18.2628 0.087636 0.427337 -1.000568
2010-04-26 08:20:37 51°14.004 2°55.451 18.2847 0.087636 0.427349 -1.000568
2010-04-26 08:20:42 51°14.004 2°55.451 18.2774 0.087636 0.427361 -1.035392
2010-04-26 08:20:48 51°14.005 2°55.452 18.2798 0.087636 0.427366 -1.000568
2010-04-26 08:20:53 51°14.005 2°55.451 18.2645 0.087636 0.427378 -1.000568
2010-04-26 08:20:57 51°14.005 2°55.452 18.2776 0.087636 0.427378 -1.000568
2010-04-26 08:21:02 51°14.005 2°55.451 18.2661 0.087636 0.427384 -1.035392
2010-04-26 08:21:07 51°14.005 2°55.452 18.2453 0.087636 0.427396 -1.035392
2010-04-26 08:21:13 51°14.005 2°55.451 18.281 0.087636 0.427407 -1.000568
2010-04-26 08:21:17 51°14.005 2°55.452 18.2971 0.087636 0.427407 -1.035392
2010-04-26 08:21:22 51°14.005 2°55.452 18.2782 0.087636 0.427419 -1.000568
2010-04-26 08:21:28 51°14.005 2°55.451 18.2864 0.087636 0.427419 -1.000568
2010-04-26 08:21:33 51°14.005 2°55.451 18.2973 0.087636 0.427425 -1.035392
2010-04-26 08:21:37 51°14.005 2°55.451 18.285 0.087636 0.427437 -1.035392
2010-04-26 08:21:42 51°14.005 2°55.451 18.282 0.087636 0.427454 -1.000568
2010-04-26 08:21:48 51°14.004 2°55.451 18.2893 0.087636 0.427449 -1.000568
2010-04-26 08:21:53 51°14.004 2°55.451 18.3008 0.087636 0.427466 -1.000568
2010-04-26 08:21:57 51°14.004 2°55.451 18.2752 0.087636 0.427466 -1.000568
2010-04-26 08:22:03 51°14.004 2°55.451 18.2828 0.087636 0.427478 -1.035392
2010-04-26 08:22:08 51°14.005 2°55.451 18.2913 0.087636 0.42749 -1.000568
2010-04-26 08:22:13 51°14.004 2°55.451 18.2984 0.087636 0.427496 -1.035392
2010-04-26 08:22:17 51°14.004 2°55.451 18.2847 0.087636 0.427507 -1.000568
2010-04-26 08:22:22 51°14.004 2°55.451 18.2969 0.087532 0.426988 -1.000568
2010-04-26 08:22:27 51°14.004 2°55.451 18.2821 0.087532 0.426988 -1.000568
2010-04-26 08:22:33 51°14.004 2°55.451 18.2896 0.087636 0.427525 -1.000568
2010-04-26 08:22:37 51°14.004 2°55.451 18.2965 0.087532 0.427006 -1.035392
2010-04-26 08:22:42 51°14.004 2°55.451 18.2757 0.087636 0.427537 -1.000568
2010-04-26 08:22:47 51°14.004 2°55.451 18.2921 0.087532 0.427024 -1.000568
2010-04-26 08:22:53 51°14.004 2°55.451 18.2776 0.087532 0.427029 -1.000568
2010-04-26 08:22:57 51°14.004 2°55.451 18.2885 0.087532 0.427029 -1.000568
2010-04-26 08:23:02 51°14.004 2°55.451 18.2925 0.087532 0.427029 -1.000568
2010-04-26 08:23:07 51°14.004 2°55.451 18.3049 0.087532 0.427053 -1.035392
2010-04-26 08:23:12 51°14.004 2°55.451 18.2817 0.087532 0.427053 -1.000568
2010-04-26 08:23:17 51°14.004 2°55.451 18.2884 0.087532 0.427059 -1.000568
2010-04-26 08:23:22 51°14.004 2°55.451 18.3008 0.087532 0.427071 -1.000568
2010-04-26 08:23:27 51°14.004 2°55.451 18.2946 0.087532 0.427071 -1.000568
2010-04-26 08:23:33 51°14.004 2°55.45 18.3014 0.087532 0.427076 -0.965744
2010-04-26 08:23:37 51°14.005 2°55.45 18.3029 0.087532 0.427088 -0.965744
2010-04-26 08:23:43 51°14.004 2°55.45 18.2982 0.087532 0.427094 -1.035392
2010-04-26 08:23:47 51°14.004 2°55.45 18.3078 0.087532 0.4271 -1.035392
2010-04-26 08:23:52 51°14.004 2°55.45 18.3085 0.087532 0.427112 -1.000568
2010-04-26 08:23:57 51°14.004 2°55.45 18.3018 0.087532 0.427112 -1.000568
2010-04-26 08:24:02 51°14.004 2°55.45 18.3057 0.087532 0.427118 -1.035392
2010-04-26 08:24:07 51°14.004 2°55.45 18.3055 0.087532 0.427123 -1.035392
2010-04-26 08:24:13 51°14.004 2°55.45 18.3051 0.087532 0.427135 -1.035392
2010-04-26 08:24:17 51°14.004 2°55.45 18.3065 0.087532 0.427141 -1.000568
2010-04-26 08:24:22 51°14.004 2°55.45 18.3077 0.087532 0.427153 -1.000568
2010-04-26 08:24:28 51°14.004 2°55.45 18.3127 0.087532 0.427153 -1.000568
2010-04-26 08:24:33 51°14.004 2°55.45 18.3133 0.087532 0.42717 -1.035392
2010-04-26 08:24:37 51°14.004 2°55.45 18.3122 0.087532 0.42717 -1.000568
2010-04-26 08:24:42 51°14.005 2°55.45 18.3104 0.087532 0.427188 -1.035392
2010-04-26 08:24:48 51°14.005 2°55.45 18.3127 0.087532 0.427194 -1.035392
2010-04-26 08:24:53 51°14.005 2°55.45 18.3186 0.087532 0.427206 -1.000568
2010-04-26 08:24:57 51°14.005 2°55.45 18.3143 0.087532 0.427206 -1.000568
2010-04-26 08:25:02 51°14.005 2°55.45 18.3178 0.087532 0.427211 -1.000568
2010-04-26 08:25:07 51°14.005 2°55.45 18.319 0.087532 0.427217 -1.035392
2010-04-26 08:25:12 51°14.005 2°55.45 18.3286 0.087532 0.427229 -1.000568
2010-04-26 08:25:17 51°14.005 2°55.45 18.3287 0.087532 0.427229 -1.035392
2010-04-26 08:25:22 51°14.005 2°55.45 18.317 0.087532 0.427247 -1.035392
2010-04-26 08:25:28 51°14.005 2°55.45 18.3224 0.087532 0.427247 -1.035392
2010-04-26 08:25:33 51°14.005 2°55.45 18.3253 0.087532 0.427253 -1.000568
2010-04-26 08:25:37 51°14.005 2°55.45 18.3232 0.087532 0.427264 -1.000568
2010-04-26 08:25:43 51°14.005 2°55.45 18.3297 0.087532 0.42727 -1.000568
2010-04-26 08:25:47 51°14.005 2°55.45 18.3236 0.087532 0.427282 -1.000568
2010-04-26 08:25:52 51°14.005 2°55.45 18.3241 0.087532 0.427288 -1.000568
2010-04-26 08:25:57 51°14.005 2°55.45 18.3266 0.087532 0.427288 -1.000568
2010-04-26 08:26:02 51°14.005 2°55.45 18.3277 0.087532 0.4273 -1.035392
2010-04-26 08:26:07 51°14.005 2°55.45 18.3228 0.087532 0.427306 -1.035392
2010-04-26 08:26:13 51°14.005 2°55.45 18.3342 0.087532 0.427317 -1.000568
2010-04-26 08:26:17 51°14.005 2°55.45 18.3114 0.087532 0.427323 -1.035392
2010-04-26 08:26:22 51°14.005 2°55.45 18.3239 0.087532 0.427335 -1.035392
2010-04-26 08:26:27 51°14.005 2°55.45 18.3171 0.087532 0.427335 -1.035392
2010-04-26 08:26:33 51°14.005 2°55.45 18.3227 0.087532 0.427341 -1.000568
2010-04-26 08:26:37 51°14.005 2°55.45 18.3232 0.087532 0.427353 -1.035392
2010-04-26 08:26:42 51°14.005 2°55.45 18.3325 0.087532 0.427358 -0.965744
2010-04-26 08:26:48 51°14.005 2°55.45 18.3219 0.087532 0.427364 -1.000568
2010-04-26 08:26:53 51°14.005 2°55.45 18.3175 0.087532 0.427376 -1.000568
2010-04-26 08:26:57 51°14.005 2°55.45 18.3341 0.087532 0.427376 -1.000568
2010-04-26 08:27:02 51°14.005 2°55.45 18.3297 0.087532 0.427382 -1.035392
2010-04-26 08:27:07 51°14.005 2°55.45 18.3322 0.087532 0.427388 -1.000568
2010-04-26 08:27:12 51°14.005 2°55.45 18.3207 0.087532 0.427405 -1.035392
2010-04-26 08:27:17 51°14.005 2°55.45 18.3333 0.087532 0.427411 -1.000568
2010-04-26 08:27:22 51°14.005 2°55.45 18.3325 0.087532 0.427423 -1.035392
2010-04-26 08:27:27 51°14.005 2°55.45 18.3226 0.087532 0.427423 -1.035392
2010-04-26 08:27:32 51°14.005 2°55.45 18.3347 0.087532 0.427429 -1.035392
2010-04-26 08:27:37 51°14.005 2°55.45 18.326 0.087532 0.427429 -1.000568
2010-04-26 08:27:42 51°14.005 2°55.45 18.3172 0.087532 0.427447 -1.035392
2010-04-26 08:27:47 51°14.005 2°55.45 18.3425 0.087532 0.427447 -1.035392
2010-04-26 08:27:52 51°14.005 2°55.45 18.3341 0.087532 0.427458 -1.000568
2010-04-26 08:27:57 51°14.005 2°55.45 18.3477 0.087532 0.427458 -1.000568
2010-04-26 08:28:03 51°14.004 2°55.45 18.3387 0.087532 0.427476 -1.035392
2010-04-26 08:28:07 51°14.004 2°55.45 18.3534 0.087428 0.426951 -1.000568
2010-04-26 08:28:13 51°14.005 2°55.45 18.3606 0.087532 0.427488 -1.000568
2010-04-26 08:28:17 51°14.005 2°55.45 18.2979 0.087532 0.4275 -1.035392
2010-04-26 08:28:23 51°14.005 2°55.45 18.3255 0.087532 0.4275 -1.000568
2010-04-26 08:28:27 51°14.005 2°55.45 18.3328 0.087532 0.4275 -1.000568
2010-04-26 08:28:33 51°14.005 2°55.45 18.3343 0.087428 0.426986 -1.000568
2010-04-26 08:28:37 51°14.005 2°55.45 18.3327 0.087428 0.427004 -1.035392
2010-04-26 08:28:42 51°14.005 2°55.45 18.3469 0.087428 0.427004 -1.000568
2010-04-26 08:28:48 51°14.005 2°55.45 18.3545 0.087428 0.427009 -1.035392
2010-04-26 08:28:53 51°14.005 2°55.45 18.3533 0.087532 0.427547 -1.035392
2010-04-26 08:28:57 51°14.005 2°55.45 18.3459 0.087532 0.427547 -1.035392
2010-04-26 08:29:02 51°14.005 2°55.45 18.3465 0.087428 0.427033 -1.035392
2010-04-26 08:29:07 51°14.005 2°55.45 18.3421 0.087428 0.427039 -1.000568
2010-04-26 08:29:13 51°14.005 2°55.45 18.3441 0.087428 0.427045 -0.965744
2010-04-26 08:29:17 51°14.005 2°55.45 18.3525 0.087428 0.427051 -1.035392
2010-04-26 08:29:22 51°14.005 2°55.45 18.3437 0.087428 0.427062 -1.000568
2010-04-26 08:29:27 51°14.005 2°55.45 18.3363 0.087428 0.427062 -1.000568
2010-04-26 08:29:33 51°14.005 2°55.45 18.3477 0.087428 0.427068 -1.035392
2010-04-26 08:29:37 51°14.005 2°55.45 18.3425 0.087428 0.42708 -1.000568
2010-04-26 08:29:42 51°14.005 2°55.45 18.3589 0.087428 0.427086 -1.000568
2010-04-26 08:29:47 51°14.005 2°55.45 18.3564 0.087428 0.427092 -1.000568
2010-04-26 08:29:53 51°14.005 2°55.45 18.357 0.087428 0.427109 -1.000568
2010-04-26 08:29:57 51°14.005 2°55.45 18.3539 0.087428 0.427109 -1.000568
2010-04-26 08:30:02 51°14.005 2°55.45 18.3563 0.087428 0.427121 -1.000568
2010-04-26 08:30:07 51°14.005 2°55.451 18.3642 0.087428 0.427115 -1.000568
2010-04-26 08:30:13 51°14.005 2°55.451 18.3571 0.087428 0.427133 -1.000568
2010-04-26 08:30:17 51°14.005 2°55.451 18.368 0.087428 0.427133 -1.035392
2010-04-26 08:30:23 51°14.005 2°55.451 18.3601 0.087428 0.427151 -1.000568
2010-04-26 08:30:27 51°14.005 2°55.451 18.3661 0.087428 0.427151 -1.000568
2010-04-26 08:30:32 51°14.005 2°55.45 18.355 0.087428 0.427162 -1.035392
2010-04-26 08:30:37 51°14.005 2°55.45 18.3625 0.087428 0.427162 -1.000568
2010-04-26 08:30:42 51°14.005 2°55.45 18.3496 0.087428 0.427174 -1.000568
2010-04-26 08:30:47 51°14.005 2°55.45 18.3536 0.087428 0.42718 -1.035392
2010-04-26 08:30:53 51°14.005 2°55.45 18.3587 0.087428 0.427192 -1.035392
2010-04-26 08:30:57 51°14.005 2°55.45 18.3702 0.087428 0.427192 -1.035392
2010-04-26 08:31:02 51°14.005 2°55.45 18.3683 0.087428 0.427198 -1.000568
2010-04-26 08:31:07 51°14.005 2°55.45 18.3697 0.087428 0.427204 -1.000568
2010-04-26 08:31:13 51°14.005 2°55.45 18.3747 0.087428 0.427215 -1.000568
2010-04-26 08:31:17 51°14.005 2°55.45 18.3715 0.087428 0.427221 -1.000568
2010-04-26 08:31:22 51°14.005 2°55.45 18.3724 0.087428 0.427227 -1.000568
2010-04-26 08:31:27 51°14.005 2°55.451 18.3773 0.087428 0.427227 -1.000568
2010-04-26 08:31:33 51°14.005 2°55.451 18.3801 0.087428 0.427239 -1.000568
2010-04-26 08:31:37 51°14.005 2°55.451 18.3697 0.087428 0.427251 -1.035392
2010-04-26 08:31:42 51°14.005 2°55.45 18.3647 0.087428 0.427256 -1.000568
2010-04-26 08:31:48 51°14.005 2°55.45 18.3721 0.087428 0.427268 -1.035392
2010-04-26 08:31:53 51°14.005 2°55.45 18.3701 0.087428 0.427274 -1.035392
2010-04-26 08:31:57 51°14.005 2°55.45 18.3704 0.087428 0.427274 -1.035392
2010-04-26 08:32:02 51°14.005 2°55.45 18.3781 0.087428 0.427286 -1.000568
2010-04-26 08:32:07 51°14.005 2°55.45 18.3815 0.087428 0.427292 -1.000568
2010-04-26 08:32:12 51°14.005 2°55.45 18.3776 0.087428 0.427304 -1.000568
2010-04-26 08:32:17 51°14.005 2°55.45 18.3724 0.087428 0.427309 -1.000568
2010-04-26 08:32:22 51°14.005 2°55.45 18.3682 0.087428 0.427315 -1.000568
2010-04-26 08:32:27 51°14.005 2°55.45 18.3676 0.087428 0.427315 -1.000568
2010-04-26 08:32:33 51°14.005 2°55.45 18.384 0.087428 0.427327 -1.035392
2010-04-26 08:32:37 51°14.005 2°55.45 18.3824 0.087428 0.427333 -1.000568
2010-04-26 08:32:42 51°14.005 2°55.45 18.3807 0.087428 0.427345 -1.000568
2010-04-26 08:32:47 51°14.005 2°55.45 18.3689 0.087428 0.427357 -1.000568
2010-04-26 08:32:53 51°14.005 2°55.45 18.3831 0.087428 0.427362 -1.000568
2010-04-26 08:32:57 51°14.005 2°55.451 18.3758 0.087428 0.427362 -1.000568
2010-04-26 08:33:02 51°14.005 2°55.45 18.3941 0.087428 0.427374 -1.000568
2010-04-26 08:33:07 51°14.005 2°55.451 18.3884 0.087428 0.42738 -1.035392
2010-04-26 08:33:13 51°14.005 2°55.45 18.3893 0.087428 0.427392 -1.035392
2010-04-26 08:33:17 51°14.005 2°55.451 18.3869 0.087428 0.427398 -1.035392
2010-04-26 08:33:22 51°14.005 2°55.45 18.3835 0.087428 0.427404 -1.000568
2010-04-26 08:33:27 51°14.005 2°55.45 18.3726 0.087428 0.427404 -1.000568